Time,TemperatureF,DewpointF,PressureIn,WindDirection,WindDirectionDegrees,WindSpeedMPH,WindSpeedGustMPH,Humidity,HourlyPrecipIn,Conditions,Clouds,dailyrainin,SoftwareType,DateUTC
2013-05-28 00:01:00,65.2,63.0,29.64,East,80,7.0,15.0,92,0.01,,,0.00,weatherlink.com 1.10,2013-05-28 05:01:00,
2013-05-28 00:03:00,65.1,62.7,29.64,East,90,10.0,15.0,92,0.00,,,0.00,Wunderground v.1.15,2013-05-28 05:03:00,
2013-05-28 00:05:00,65.1,62.7,29.64,ESE,106,10.0,15.0,92,0.00,,,0.00,Wunderground v.1.15,2013-05-28 05:05:00,
2013-05-28 00:08:00,65.1,62.7,29.65,East,95,9.0,15.0,92,0.00,,,0.00,Wunderground v.1.15,2013-05-28 05:08:00,
2013-05-28 00:10:00,65.1,62.7,29.65,East,91,8.0,8.0,92,0.00,,,0.00,Wunderground v.1.15,2013-05-28 05:10:00,
2013-05-28 00:11:00,65.0,62.6,29.65,East,98,8.0,15.0,92,0.00,,,0.00,Wunderground v.1.15,2013-05-28 05:11:00,
2013-05-28 00:16:00,65.0,62.6,29.65,East,88,7.0,15.0,92,0.00,,,0.00,Wunderground v.1.15,2013-05-28 05:16:00,
2013-05-28 00:17:00,65.0,63.0,29.65,East,95,8.0,11.0,92,0.01,,,0.00,weatherlink.com 1.10,2013-05-28 05:17:00,
2013-05-28 00:20:00,65.0,62.6,29.65,East,90,6.0,6.0,92,0.00,,,0.00,Wunderground v.1.15,2013-05-28 05:20:00,
2013-05-28 00:21:00,64.9,62.5,29.65,East,90,6.0,7.0,92,0.00,,,0.00,Wunderground v.1.15,2013-05-28 05:21:00,
2013-05-28 00:22:00,64.9,62.5,29.65,East,87,6.0,15.0,92,0.00,,,0.00,Wunderground v.1.15,2013-05-28 05:22:00,
2013-05-28 00:23:00,64.9,62.5,29.65,East,101,6.0,15.0,92,0.00,,,0.00,Wunderground v.1.15,2013-05-28 05:23:00,
2013-05-28 00:27:00,64.9,62.5,29.65,ESE,106,5.0,15.0,92,0.00,,,0.00,Wunderground v.1.15,2013-05-28 05:27:00,
2013-05-28 00:28:00,64.9,62.5,29.65,ESE,105,5.0,15.0,92,0.00,,,0.00,Wunderground v.1.15,2013-05-28 05:28:00,
2013-05-28 00:29:00,64.9,62.5,29.65,ESE,105,5.0,15.0,92,0.00,,,0.00,Wunderground v.1.15,2013-05-28 05:29:00,
2013-05-28 00:30:00,64.9,62.5,29.65,ESE,105,5.0,5.0,92,0.00,,,0.00,Wunderground v.1.15,2013-05-28 05:30:00,
2013-05-28 00:33:00,65.0,62.6,29.65,ENE,68,4.0,15.0,92,0.00,,,0.00,Wunderground v.1.15,2013-05-28 05:33:00,
2013-05-28 00:35:00,65.0,62.6,29.65,ENE,61,5.0,15.0,92,0.00,,,0.00,Wunderground v.1.15,2013-05-28 05:35:00,
2013-05-28 00:36:00,65.0,62.6,29.66,ENE,63,5.0,15.0,92,0.00,,,0.00,Wunderground v.1.15,2013-05-28 05:36:00,
2013-05-28 00:38:00,65.0,62.6,29.66,NE,51,5.0,15.0,92,0.00,,,0.00,Wunderground v.1.15,2013-05-28 05:38:00,
2013-05-28 00:39:00,65.0,62.6,29.67,NE,48,5.0,15.0,92,0.00,,,0.00,Wunderground v.1.15,2013-05-28 05:39:00,
2013-05-28 00:43:00,65.0,62.6,29.67,NE,51,5.0,15.0,92,0.00,,,0.00,Wunderground v.1.15,2013-05-28 05:43:00,
2013-05-28 00:46:00,65.0,62.6,29.67,NE,49,5.0,15.0,92,0.00,,,0.00,Wunderground v.1.15,2013-05-28 05:46:00,
2013-05-28 00:48:00,64.9,62.5,29.67,NE,44,5.0,15.0,92,0.00,,,0.00,Wunderground v.1.15,2013-05-28 05:48:00,
2013-05-28 00:49:00,64.9,62.5,29.67,NE,44,5.0,15.0,92,0.00,,,0.00,Wunderground v.1.15,2013-05-28 05:49:00,
2013-05-28 00:50:00,65.0,62.6,29.67,NE,38,4.0,4.0,92,0.00,,,0.00,Wunderground v.1.15,2013-05-28 05:50:00,
2013-05-28 00:53:00,65.0,62.6,29.68,NE,41,4.0,15.0,92,0.00,,,0.00,Wunderground v.1.15,2013-05-28 05:53:00,
2013-05-28 00:56:00,65.0,62.6,29.68,NE,41,3.0,15.0,92,0.00,,,0.00,Wunderground v.1.15,2013-05-28 05:56:00,
2013-05-28 00:57:00,65.0,62.6,29.68,NE,41,3.0,15.0,92,0.00,,,0.00,Wunderground v.1.15,2013-05-28 05:57:00,
2013-05-28 01:00:00,65.0,62.6,29.68,NE,41,2.0,15.0,92,0.00,,,0.00,Wunderground v.1.15,2013-05-28 06:00:00,
2013-05-28 01:01:00,65.0,63.0,29.68,NE,41,3.0,4.0,92,0.00,,,0.00,weatherlink.com 1.10,2013-05-28 06:01:00,
2013-05-28 01:03:00,64.9,62.5,29.68,NE,41,2.0,15.0,92,0.00,,,0.00,Wunderground v.1.15,2013-05-28 06:03:00,
2013-05-28 01:04:00,64.9,62.5,29.68,NE,41,2.0,15.0,92,0.00,,,0.00,Wunderground v.1.15,2013-05-28 06:04:00,
2013-05-28 01:07:00,64.8,62.4,29.68,NE,41,2.0,15.0,92,0.00,,,0.00,Wunderground v.1.15,2013-05-28 06:07:00,
2013-05-28 01:10:00,64.6,62.2,29.68,NE,41,2.0,15.0,92,0.00,,,0.00,Wunderground v.1.15,2013-05-28 06:10:00,
2013-05-28 01:13:00,64.5,62.1,29.68,NE,41,1.0,15.0,92,0.00,,,0.00,Wunderground v.1.15,2013-05-28 06:13:00,
2013-05-28 01:14:00,64.5,62.1,29.68,NE,41,1.0,15.0,92,0.00,,,0.00,Wunderground v.1.15,2013-05-28 06:14:00,
2013-05-28 01:16:00,64.3,61.9,29.68,NE,41,1.0,15.0,92,0.00,,,0.00,Wunderground v.1.15,2013-05-28 06:16:00,
2013-05-28 01:18:00,64.2,61.8,29.68,NE,41,2.0,15.0,92,0.00,,,0.00,Wunderground v.1.15,2013-05-28 06:18:00,
2013-05-28 01:19:00,64.2,61.8,29.68,NE,41,2.0,15.0,92,0.00,,,0.00,Wunderground v.1.15,2013-05-28 06:19:00,
2013-05-28 01:22:00,64.1,61.7,29.69,NE,41,2.0,2.0,92,0.00,,,0.00,Wunderground v.1.15,2013-05-28 06:22:00,
2013-05-28 01:23:00,64.2,61.8,29.68,NE,41,2.0,2.0,92,0.00,,,0.00,Wunderground v.1.15,2013-05-28 06:23:00,
2013-05-28 01:24:00,64.1,61.7,29.68,NE,41,2.0,2.0,92,0.00,,,0.00,Wunderground v.1.15,2013-05-28 06:24:00,
2013-05-28 01:27:00,64.0,61.6,29.68,NE,41,1.0,2.0,92,0.00,,,0.00,Wunderground v.1.15,2013-05-28 06:27:00,
2013-05-28 01:30:00,63.9,61.5,29.68,NE,41,1.0,1.0,92,0.00,,,0.00,Wunderground v.1.15,2013-05-28 06:30:00,
2013-05-28 01:32:00,63.9,61.5,29.67,NE,41,1.0,4.0,92,0.00,,,0.00,Wunderground v.1.15,2013-05-28 06:32:00,
2013-05-28 01:33:00,63.8,61.4,29.67,NE,41,2.0,4.0,92,0.00,,,0.00,Wunderground v.1.15,2013-05-28 06:33:00,
2013-05-28 01:36:00,63.8,61.4,29.67,ENE,60,3.0,6.0,92,0.00,,,0.00,Wunderground v.1.15,2013-05-28 06:36:00,
2013-05-28 01:39:00,63.8,61.7,29.67,ENE,60,3.0,6.0,93,0.00,,,0.00,Wunderground v.1.15,2013-05-28 06:39:00,
2013-05-28 01:40:00,63.8,61.7,29.67,ENE,60,3.0,3.0,93,0.00,,,0.00,Wunderground v.1.15,2013-05-28 06:40:00,
2013-05-28 01:41:00,63.8,61.7,29.67,ENE,60,3.0,3.0,93,0.00,,,0.00,Wunderground v.1.15,2013-05-28 06:41:00,
2013-05-28 01:42:00,63.8,61.7,29.68,ENE,60,3.0,3.0,93,0.00,,,0.00,Wunderground v.1.15,2013-05-28 06:42:00,
2013-05-28 01:43:00,63.8,61.7,29.68,ENE,60,3.0,3.0,93,0.00,,,0.00,Wunderground v.1.15,2013-05-28 06:43:00,
2013-05-28 01:50:00,63.7,61.6,29.68,ENE,60,0.0,0.0,93,0.00,,,0.00,Wunderground v.1.15,2013-05-28 06:50:00,
2013-05-28 01:52:00,63.7,61.6,29.68,ENE,60,0.0,0.0,93,0.00,,,0.00,Wunderground v.1.15,2013-05-28 06:52:00,
2013-05-28 01:55:00,63.7,61.6,29.68,ENE,60,0.0,0.0,93,0.00,,,0.00,Wunderground v.1.15,2013-05-28 06:55:00,
2013-05-28 01:57:00,63.7,61.6,29.68,ENE,60,0.0,0.0,93,0.00,,,0.00,Wunderground v.1.15,2013-05-28 06:57:00,
2013-05-28 01:59:00,63.7,61.6,29.68,ENE,60,0.0,0.0,93,0.00,,,0.00,Wunderground v.1.15,2013-05-28 06:59:00,
2013-05-28 02:01:00,63.7,61.6,29.68,ENE,60,0.0,10.0,93,0.00,,,0.00,Wunderground v.1.15,2013-05-28 07:01:00,
2013-05-28 02:02:00,63.8,61.7,29.68,ENE,60,0.0,10.0,93,0.00,,,0.00,Wunderground v.1.15,2013-05-28 07:02:00,
2013-05-28 02:06:00,63.6,61.5,29.67,ENE,60,0.0,10.0,93,0.00,,,0.00,Wunderground v.1.15,2013-05-28 07:06:00,
2013-05-28 02:07:00,63.5,61.4,29.67,ENE,60,0.0,10.0,93,0.00,,,0.00,Wunderground v.1.15,2013-05-28 07:07:00,
2013-05-28 02:08:00,63.5,61.4,29.67,ENE,60,0.0,10.0,93,0.00,,,0.00,Wunderground v.1.15,2013-05-28 07:08:00,
2013-05-28 02:09:00,63.4,61.3,29.67,ENE,60,0.0,10.0,93,0.00,,,0.00,Wunderground v.1.15,2013-05-28 07:09:00,
2013-05-28 02:10:00,63.5,61.4,29.67,ENE,60,0.0,10.0,93,0.00,,,0.00,Wunderground v.1.15,2013-05-28 07:10:00,
2013-05-28 02:12:00,63.5,61.4,29.67,ENE,60,0.0,10.0,93,0.00,,,0.00,Wunderground v.1.15,2013-05-28 07:12:00,
2013-05-28 02:13:00,63.5,61.4,29.67,ENE,60,1.0,10.0,93,0.00,,,0.00,Wunderground v.1.15,2013-05-28 07:13:00,
2013-05-28 02:14:00,63.5,61.4,29.67,ENE,60,1.0,10.0,93,0.00,,,0.00,Wunderground v.1.15,2013-05-28 07:14:00,
2013-05-28 02:19:00,63.5,61.4,29.68,ENE,60,2.0,10.0,93,0.00,,,0.00,Wunderground v.1.15,2013-05-28 07:19:00,
2013-05-28 02:21:00,63.4,61.3,29.68,ENE,60,2.0,4.0,93,0.00,,,0.00,Wunderground v.1.15,2013-05-28 07:21:00,
2013-05-28 02:22:00,63.4,61.3,29.68,ENE,60,2.0,10.0,93,0.00,,,0.00,Wunderground v.1.15,2013-05-28 07:22:00,
2013-05-28 02:23:00,63.3,61.2,29.68,ENE,60,2.0,10.0,93,0.00,,,0.00,Wunderground v.1.15,2013-05-28 07:23:00,
2013-05-28 02:24:00,63.2,61.1,29.67,ENE,60,2.0,10.0,93,0.00,,,0.00,Wunderground v.1.15,2013-05-28 07:24:00,
2013-05-28 02:27:00,63.1,61.0,29.68,ENE,60,1.0,10.0,93,0.00,,,0.00,Wunderground v.1.15,2013-05-28 07:27:00,
2013-05-28 02:30:00,62.9,60.8,29.67,ENE,60,1.0,1.0,93,0.00,,,0.00,Wunderground v.1.15,2013-05-28 07:30:00,
2013-05-28 02:34:00,63.0,60.9,29.68,ENE,60,0.0,10.0,93,0.00,,,0.00,Wunderground v.1.15,2013-05-28 07:34:00,
2013-05-28 02:35:00,63.0,60.9,29.68,ENE,60,0.0,10.0,93,0.00,,,0.00,Wunderground v.1.15,2013-05-28 07:35:00,
2013-05-28 02:38:00,63.0,60.9,29.67,ENE,60,0.0,10.0,93,0.00,,,0.00,Wunderground v.1.15,2013-05-28 07:38:00,
2013-05-28 02:40:00,63.1,61.0,29.67,ENE,60,0.0,10.0,93,0.00,,,0.00,Wunderground v.1.15,2013-05-28 07:40:00,
2013-05-28 02:42:00,63.0,60.9,29.67,ENE,60,0.0,10.0,93,0.00,,,0.00,Wunderground v.1.15,2013-05-28 07:42:00,
2013-05-28 02:43:00,63.0,60.9,29.67,ENE,60,0.0,10.0,93,0.00,,,0.00,Wunderground v.1.15,2013-05-28 07:43:00,
2013-05-28 02:45:00,63.0,60.9,29.67,ENE,60,0.0,10.0,93,0.00,,,0.00,Wunderground v.1.15,2013-05-28 07:45:00,
2013-05-28 02:47:00,63.1,61.0,29.67,ENE,60,0.0,10.0,93,0.00,,,0.00,Wunderground v.1.15,2013-05-28 07:47:00,
2013-05-28 02:48:00,63.1,61.0,29.67,ENE,60,1.0,10.0,93,0.00,,,0.00,Wunderground v.1.15,2013-05-28 07:48:00,
2013-05-28 02:51:00,62.9,60.8,29.67,ENE,60,1.0,10.0,93,0.00,,,0.00,Wunderground v.1.15,2013-05-28 07:51:00,
2013-05-28 02:54:00,62.9,60.8,29.67,ENE,60,1.0,10.0,93,0.00,,,0.00,Wunderground v.1.15,2013-05-28 07:54:00,
2013-05-28 02:55:00,62.8,60.7,29.67,ENE,60,1.0,10.0,93,0.00,,,0.00,Wunderground v.1.15,2013-05-28 07:55:00,
2013-05-28 02:56:00,62.6,60.5,29.67,ENE,60,1.0,10.0,93,0.00,,,0.00,Wunderground v.1.15,2013-05-28 07:56:00,
2013-05-28 03:00:00,61.7,59.4,29.67,ENE,60,1.0,1.0,92,0.00,,,0.00,Wunderground v.1.15,2013-05-28 08:00:00,
2013-05-28 03:02:00,61.5,59.0,29.67,ENE,60,0.0,3.0,92,0.00,,,0.00,weatherlink.com 1.10,2013-05-28 08:02:00,
2013-05-28 03:03:00,61.4,59.1,29.67,ENE,60,1.0,10.0,92,0.00,,,0.00,Wunderground v.1.15,2013-05-28 08:03:00,
2013-05-28 03:05:00,61.3,59.3,29.67,ENE,60,1.0,10.0,93,0.00,,,0.00,Wunderground v.1.15,2013-05-28 08:05:00,
2013-05-28 03:09:00,61.9,59.9,29.67,ENE,60,0.0,10.0,93,0.00,,,0.00,Wunderground v.1.15,2013-05-28 08:09:00,
2013-05-28 03:11:00,62.3,60.6,29.67,ENE,60,1.0,10.0,94,0.00,,,0.00,Wunderground v.1.15,2013-05-28 08:11:00,
2013-05-28 03:14:00,62.6,60.8,29.66,ENE,60,1.0,10.0,94,0.00,,,0.00,Wunderground v.1.15,2013-05-28 08:14:00,
2013-05-28 03:15:00,62.6,61.4,29.66,ENE,60,1.0,10.0,96,0.00,,,0.00,Wunderground v.1.15,2013-05-28 08:15:00,
2013-05-28 03:17:00,62.7,60.9,29.66,ENE,60,1.0,10.0,94,0.00,,,0.00,Wunderground v.1.15,2013-05-28 08:17:00,
2013-05-28 03:19:00,62.7,60.9,29.67,ENE,60,2.0,10.0,94,0.00,,,0.00,Wunderground v.1.15,2013-05-28 08:19:00,
2013-05-28 03:20:00,62.7,60.9,29.67,ENE,60,2.0,10.0,94,0.00,,,0.00,Wunderground v.1.15,2013-05-28 08:20:00,
2013-05-28 03:23:00,62.5,60.7,29.67,NW,322,2.0,10.0,94,0.00,,,0.00,Wunderground v.1.15,2013-05-28 08:23:00,
2013-05-28 03:24:00,62.5,60.7,29.67,NW,322,3.0,10.0,94,0.00,,,0.00,Wunderground v.1.15,2013-05-28 08:24:00,
2013-05-28 03:25:00,62.5,60.4,29.67,NW,322,3.0,10.0,93,0.00,,,0.00,Wunderground v.1.15,2013-05-28 08:25:00,
2013-05-28 03:27:00,62.4,60.3,29.67,NW,322,4.0,10.0,93,0.00,,,0.00,Wunderground v.1.15,2013-05-28 08:27:00,
2013-05-28 03:30:00,62.3,60.2,29.67,NW,310,4.0,10.0,93,0.00,,,0.00,Wunderground v.1.15,2013-05-28 08:30:00,
2013-05-28 03:31:00,62.3,60.2,29.67,NW,310,4.0,10.0,93,0.00,,,0.00,Wunderground v.1.15,2013-05-28 08:31:00,
2013-05-28 03:33:00,62.1,60.1,29.68,NW,311,5.0,10.0,93,0.00,,,0.00,Wunderground v.1.15,2013-05-28 08:33:00,
2013-05-28 03:34:00,62.0,60.0,29.68,NW,311,5.0,10.0,93,0.00,,,0.00,Wunderground v.1.15,2013-05-28 08:34:00,
2013-05-28 03:36:00,61.8,59.8,29.68,NW,321,5.0,10.0,93,0.00,,,0.00,Wunderground v.1.15,2013-05-28 08:36:00,
2013-05-28 03:37:00,61.8,59.8,29.68,NW,309,5.0,10.0,93,0.00,,,0.00,Wunderground v.1.15,2013-05-28 08:37:00,
2013-05-28 03:38:00,61.8,59.8,29.68,NW,306,6.0,10.0,93,0.00,,,0.00,Wunderground v.1.15,2013-05-28 08:38:00,
2013-05-28 03:43:00,61.9,60.2,29.68,NW,319,6.0,10.0,94,0.00,,,0.00,Wunderground v.1.15,2013-05-28 08:43:00,
2013-05-28 03:44:00,62.0,60.3,29.68,NW,325,5.0,10.0,94,0.00,,,0.00,Wunderground v.1.15,2013-05-28 08:44:00,
2013-05-28 03:45:00,62.0,60.3,29.68,NNW,329,6.0,10.0,94,0.00,,,0.00,Wunderground v.1.15,2013-05-28 08:45:00,
2013-05-28 03:48:00,62.1,60.4,29.68,NW,324,6.0,10.0,94,0.00,,,0.00,Wunderground v.1.15,2013-05-28 08:48:00,
2013-05-28 03:49:00,62.1,60.4,29.68,NNW,328,6.0,10.0,94,0.00,,,0.00,Wunderground v.1.15,2013-05-28 08:49:00,
2013-05-28 03:52:00,62.2,60.5,29.69,NW,311,6.0,10.0,94,0.00,,,0.00,Wunderground v.1.15,2013-05-28 08:52:00,
2013-05-28 03:55:00,62.3,60.6,29.69,NW,321,7.0,10.0,94,0.00,,,0.00,Wunderground v.1.15,2013-05-28 08:55:00,
2013-05-28 03:57:00,62.3,60.6,29.69,NW,324,7.0,10.0,94,0.00,,,0.00,Wunderground v.1.15,2013-05-28 08:57:00,
2013-05-28 04:01:00,62.3,60.6,29.70,NW,325,7.0,10.0,94,0.00,,,0.00,Wunderground v.1.15,2013-05-28 09:01:00,
2013-05-28 04:06:00,62.3,60.6,29.70,NW,321,7.0,10.0,94,0.00,,,0.00,Wunderground v.1.15,2013-05-28 09:06:00,
2013-05-28 04:07:00,62.2,60.5,29.70,NW,304,7.0,10.0,94,0.00,,,0.00,Wunderground v.1.15,2013-05-28 09:07:00,
2013-05-28 04:09:00,62.2,60.5,29.70,NNW,330,7.0,10.0,94,0.00,,,0.00,Wunderground v.1.15,2013-05-28 09:09:00,
2013-05-28 04:10:00,62.1,60.4,29.70,NNW,329,6.0,10.0,94,0.00,,,0.00,Wunderground v.1.15,2013-05-28 09:10:00,
2013-05-28 04:12:00,62.1,60.4,29.71,NNW,330,6.0,10.0,94,0.00,,,0.00,Wunderground v.1.15,2013-05-28 09:12:00,
2013-05-28 04:13:00,62.1,60.4,29.71,NNW,342,6.0,10.0,94,0.00,,,0.00,Wunderground v.1.15,2013-05-28 09:13:00,
2013-05-28 04:14:00,62.1,60.4,29.71,NW,314,6.0,10.0,94,0.00,,,0.00,Wunderground v.1.15,2013-05-28 09:14:00,
2013-05-28 04:19:00,62.1,60.4,29.70,NNW,337,4.0,10.0,94,0.00,,,0.00,Wunderground v.1.15,2013-05-28 09:19:00,
2013-05-28 04:21:00,62.1,60.4,29.70,NNW,338,4.0,10.0,94,0.00,,,0.00,Wunderground v.1.15,2013-05-28 09:21:00,
2013-05-28 04:25:00,62.0,60.3,29.70,NNW,327,3.0,10.0,94,0.00,,,0.00,Wunderground v.1.15,2013-05-28 09:25:00,
2013-05-28 04:26:00,62.0,60.3,29.70,NNW,328,3.0,10.0,94,0.00,,,0.00,Wunderground v.1.15,2013-05-28 09:26:00,
2013-05-28 04:27:00,61.9,60.2,29.70,NW,318,3.0,10.0,94,0.00,,,0.00,Wunderground v.1.15,2013-05-28 09:27:00,
2013-05-28 04:28:00,61.9,60.2,29.70,NW,318,3.0,10.0,94,0.00,,,0.00,Wunderground v.1.15,2013-05-28 09:28:00,
2013-05-28 04:32:00,61.9,60.2,29.70,North,360,3.0,10.0,94,0.00,,,0.00,Wunderground v.1.15,2013-05-28 09:32:00,
2013-05-28 04:33:00,61.8,60.1,29.70,North,5,3.0,10.0,94,0.00,,,0.00,Wunderground v.1.15,2013-05-28 09:33:00,
2013-05-28 04:35:00,61.8,60.1,29.70,North,360,3.0,10.0,94,0.00,,,0.00,Wunderground v.1.15,2013-05-28 09:35:00,
2013-05-28 04:36:00,61.8,60.1,29.70,North,5,3.0,10.0,94,0.00,,,0.00,Wunderground v.1.15,2013-05-28 09:36:00,
2013-05-28 04:37:00,61.8,60.1,29.70,North,9,3.0,10.0,94,0.00,,,0.00,Wunderground v.1.15,2013-05-28 09:37:00,
2013-05-28 04:40:00,61.8,60.1,29.69,ENE,61,3.0,10.0,94,0.00,,,0.00,Wunderground v.1.15,2013-05-28 09:40:00,
2013-05-28 04:43:00,61.8,60.1,29.69,ENE,66,4.0,10.0,94,0.00,,,0.00,Wunderground v.1.15,2013-05-28 09:43:00,
2013-05-28 04:45:00,61.8,60.1,29.69,ENE,57,4.0,10.0,94,0.00,,,0.00,Wunderground v.1.15,2013-05-28 09:45:00,
2013-05-28 04:46:00,61.8,60.1,29.69,NE,39,4.0,10.0,94,0.00,,,0.00,Wunderground v.1.15,2013-05-28 09:46:00,
2013-05-28 04:49:00,61.8,60.1,29.70,NE,36,4.0,10.0,94,0.00,,,0.00,Wunderground v.1.15,2013-05-28 09:49:00,
2013-05-28 04:52:00,61.8,60.1,29.70,NNE,32,3.0,10.0,94,0.00,,,0.00,Wunderground v.1.15,2013-05-28 09:52:00,
2013-05-28 04:53:00,61.8,60.1,29.71,NNE,32,3.0,10.0,94,0.00,,,0.00,Wunderground v.1.15,2013-05-28 09:53:00,
2013-05-28 04:55:00,61.8,60.1,29.70,NNE,32,3.0,10.0,94,0.00,,,0.00,Wunderground v.1.15,2013-05-28 09:55:00,
2013-05-28 04:56:00,61.8,60.1,29.70,NNE,32,3.0,10.0,94,0.00,,,0.00,Wunderground v.1.15,2013-05-28 09:56:00,
2013-05-28 04:57:00,61.9,60.2,29.71,NNE,32,3.0,10.0,94,0.00,,,0.00,Wunderground v.1.15,2013-05-28 09:57:00,
2013-05-28 04:58:00,61.9,60.2,29.71,NNE,32,3.0,10.0,94,0.00,,,0.00,Wunderground v.1.15,2013-05-28 09:58:00,
2013-05-28 05:01:00,61.9,60.2,29.71,NNE,32,3.0,10.0,94,0.00,,,0.00,Wunderground v.1.15,2013-05-28 10:01:00,
2013-05-28 05:02:00,61.9,60.2,29.71,NNE,32,3.0,10.0,94,0.00,,,0.00,Wunderground v.1.15,2013-05-28 10:02:00,
2013-05-28 05:04:00,61.9,60.2,29.71,NNE,32,2.0,10.0,94,0.00,,,0.00,Wunderground v.1.15,2013-05-28 10:04:00,
2013-05-28 05:05:00,61.9,60.2,29.71,NNE,32,2.0,10.0,94,0.00,,,0.00,Wunderground v.1.15,2013-05-28 10:05:00,
2013-05-28 05:07:00,61.9,60.2,29.71,NNE,32,2.0,10.0,94,0.00,,,0.00,Wunderground v.1.15,2013-05-28 10:07:00,
2013-05-28 05:11:00,61.9,60.2,29.71,NNE,30,2.0,10.0,94,0.00,,,0.00,Wunderground v.1.15,2013-05-28 10:11:00,
2013-05-28 05:12:00,61.9,60.2,29.71,NNE,30,3.0,10.0,94,0.00,,,0.00,Wunderground v.1.15,2013-05-28 10:12:00,
2013-05-28 05:13:00,61.9,60.2,29.72,NNE,29,3.0,10.0,94,0.00,,,0.00,Wunderground v.1.15,2013-05-28 10:13:00,
2013-05-28 05:16:00,61.9,60.2,29.72,NNE,29,2.0,10.0,94,0.00,,,0.00,Wunderground v.1.15,2013-05-28 10:16:00,
2013-05-28 05:17:00,61.9,60.2,29.72,NNE,30,2.0,10.0,94,0.00,,,0.00,Wunderground v.1.15,2013-05-28 10:17:00,
2013-05-28 05:21:00,61.9,60.2,29.71,NNE,16,2.0,7.0,94,0.00,,,0.00,Wunderground v.1.15,2013-05-28 10:21:00,
2013-05-28 05:22:00,61.8,60.1,29.72,NNE,22,2.0,7.0,94,0.00,,,0.00,Wunderground v.1.15,2013-05-28 10:22:00,
2013-05-28 05:23:00,61.8,60.1,29.72,NNE,22,2.0,7.0,94,0.00,,,0.00,Wunderground v.1.15,2013-05-28 10:23:00,
2013-05-28 05:25:00,61.8,60.1,29.72,NNE,19,2.0,7.0,94,0.00,,,0.00,Wunderground v.1.15,2013-05-28 10:25:00,
2013-05-28 05:28:00,61.8,60.1,29.72,NW,326,2.0,7.0,94,0.00,,,0.00,Wunderground v.1.15,2013-05-28 10:28:00,
2013-05-28 05:29:00,61.8,60.1,29.72,North,10,3.0,7.0,94,0.00,,,0.00,Wunderground v.1.15,2013-05-28 10:29:00,
2013-05-28 05:30:00,61.8,60.1,29.72,NNW,335,3.0,4.0,94,0.00,,,0.00,Wunderground v.1.15,2013-05-28 10:30:00,
2013-05-28 05:34:00,61.8,60.1,29.72,NNW,336,3.0,4.0,94,0.00,,,0.00,Wunderground v.1.15,2013-05-28 10:34:00,
2013-05-28 05:35:00,61.8,60.1,29.72,NNW,336,3.0,4.0,94,0.00,,,0.00,Wunderground v.1.15,2013-05-28 10:35:00,
2013-05-28 05:36:00,61.8,60.1,29.72,NNW,336,3.0,4.0,94,0.00,,,0.00,Wunderground v.1.15,2013-05-28 10:36:00,
2013-05-28 05:40:00,61.8,60.1,29.72,NNW,336,2.0,3.0,94,0.00,,,0.00,Wunderground v.1.15,2013-05-28 10:40:00,
2013-05-28 05:42:00,61.8,60.1,29.72,NNW,336,2.0,3.0,94,0.00,,,0.00,Wunderground v.1.15,2013-05-28 10:42:00,
2013-05-28 05:44:00,61.8,60.1,29.72,NNW,336,2.0,3.0,94,0.00,,,0.00,Wunderground v.1.15,2013-05-28 10:44:00,
2013-05-28 05:46:00,61.8,60.1,29.72,NNW,336,2.0,3.0,94,0.00,,,0.00,Wunderground v.1.15,2013-05-28 10:46:00,
2013-05-28 05:47:00,61.8,60.1,29.72,NNW,336,2.0,6.0,94,0.00,,,0.00,Wunderground v.1.15,2013-05-28 10:47:00,
2013-05-28 05:48:00,61.8,60.1,29.72,NNW,336,3.0,6.0,94,0.00,,,0.00,Wunderground v.1.15,2013-05-28 10:48:00,
2013-05-28 05:50:00,61.8,60.1,29.72,NNW,336,3.0,3.0,94,0.00,,,0.00,Wunderground v.1.15,2013-05-28 10:50:00,
2013-05-28 05:54:00,61.8,60.1,29.71,NNW,336,2.0,3.0,94,0.00,,,0.00,Wunderground v.1.15,2013-05-28 10:54:00,
2013-05-28 05:55:00,61.8,60.1,29.71,NNW,336,2.0,3.0,94,0.00,,,0.00,Wunderground v.1.15,2013-05-28 10:55:00,
2013-05-28 05:59:00,61.8,60.1,29.71,NNW,336,1.0,3.0,94,0.00,,,0.00,Wunderground v.1.15,2013-05-28 10:59:00,
2013-05-28 06:01:00,61.8,60.1,29.71,NNW,336,0.0,8.0,94,0.00,,,0.00,Wunderground v.1.15,2013-05-28 11:01:00,
2013-05-28 06:02:00,61.8,60.1,29.71,NNW,336,0.0,8.0,94,0.00,,,0.00,Wunderground v.1.15,2013-05-28 11:02:00,
2013-05-28 06:03:00,61.8,60.1,29.71,NNW,336,0.0,8.0,94,0.00,,,0.00,Wunderground v.1.15,2013-05-28 11:03:00,
2013-05-28 06:05:00,61.7,60.0,29.71,NNW,336,0.0,8.0,94,0.00,,,0.00,Wunderground v.1.15,2013-05-28 11:05:00,
2013-05-28 06:06:00,61.7,60.0,29.71,NNW,336,0.0,8.0,94,0.00,,,0.00,Wunderground v.1.15,2013-05-28 11:06:00,
2013-05-28 06:07:00,61.7,60.0,29.71,NNW,336,1.0,8.0,94,0.00,,,0.00,Wunderground v.1.15,2013-05-28 11:07:00,
2013-05-28 06:11:00,61.7,60.0,29.71,NNW,336,2.0,8.0,94,0.00,,,0.00,Wunderground v.1.15,2013-05-28 11:11:00,
2013-05-28 06:13:00,61.7,60.0,29.71,NW,325,3.0,11.0,94,0.00,,,0.00,Wunderground v.1.15,2013-05-28 11:13:00,
2013-05-28 06:16:00,61.3,59.6,29.71,NW,323,5.0,11.0,94,0.00,,,0.00,Wunderground v.1.15,2013-05-28 11:16:00,
2013-05-28 06:17:00,61.1,59.4,29.71,NW,314,6.0,11.0,94,0.00,,,0.00,Wunderground v.1.15,2013-05-28 11:17:00,
2013-05-28 06:19:00,61.0,59.3,29.71,NW,323,7.0,11.0,94,0.00,,,0.00,Wunderground v.1.15,2013-05-28 11:19:00,
2013-05-28 06:21:00,60.8,59.1,29.72,NNW,332,7.0,8.0,94,0.00,,,0.00,Wunderground v.1.15,2013-05-28 11:21:00,
2013-05-28 06:23:00,60.7,59.0,29.72,NW,319,7.0,8.0,94,0.00,,,0.00,Wunderground v.1.15,2013-05-28 11:23:00,
2013-05-28 06:24:00,60.7,59.0,29.72,NNW,342,7.0,8.0,94,0.00,,,0.00,Wunderground v.1.15,2013-05-28 11:24:00,
2013-05-28 06:25:00,60.6,58.9,29.72,NNW,340,6.0,8.0,94,0.00,,,0.00,Wunderground v.1.15,2013-05-28 11:25:00,
2013-05-28 06:30:00,60.5,58.8,29.71,NNW,338,5.0,5.0,94,0.00,,,0.00,Wunderground v.1.15,2013-05-28 11:30:00,
2013-05-28 06:31:00,60.5,58.8,29.71,NNW,341,4.0,8.0,94,0.00,,,0.00,Wunderground v.1.15,2013-05-28 11:31:00,
2013-05-28 06:35:00,60.4,58.7,29.71,NW,319,3.0,8.0,94,0.00,,,0.00,Wunderground v.1.15,2013-05-28 11:35:00,
2013-05-28 06:38:00,60.4,58.7,29.70,NNE,26,3.0,8.0,94,0.00,,,0.00,Wunderground v.1.15,2013-05-28 11:38:00,
2013-05-28 06:39:00,60.4,58.7,29.70,NNE,23,3.0,8.0,94,0.00,,,0.00,Wunderground v.1.15,2013-05-28 11:39:00,
2013-05-28 06:40:00,60.4,58.7,29.70,NNE,24,3.0,8.0,94,0.00,,,0.00,Wunderground v.1.15,2013-05-28 11:40:00,
2013-05-28 06:45:00,60.4,58.7,29.70,NNE,24,4.0,8.0,94,0.00,,,0.00,Wunderground v.1.15,2013-05-28 11:45:00,
2013-05-28 06:47:00,60.3,58.6,29.70,NNE,24,4.0,8.0,94,0.00,,,0.00,Wunderground v.1.15,2013-05-28 11:47:00,
2013-05-28 06:51:00,60.4,58.7,29.69,NNE,32,3.0,8.0,94,0.00,,,0.00,Wunderground v.1.15,2013-05-28 11:51:00,
2013-05-28 06:52:00,60.4,58.7,29.69,NNE,32,3.0,8.0,94,0.00,,,0.00,Wunderground v.1.15,2013-05-28 11:52:00,
2013-05-28 06:53:00,60.4,58.7,29.69,NNE,32,3.0,8.0,94,0.00,,,0.00,Wunderground v.1.15,2013-05-28 11:53:00,
2013-05-28 06:56:00,60.4,58.4,29.69,NNE,32,3.0,8.0,93,0.00,,,0.00,Wunderground v.1.15,2013-05-28 11:56:00,
2013-05-28 06:57:00,60.4,58.4,29.69,NNE,32,3.0,8.0,93,0.00,,,0.00,Wunderground v.1.15,2013-05-28 11:57:00,
2013-05-28 06:58:00,60.4,58.4,29.69,NNE,32,3.0,8.0,93,0.00,,,0.00,Wunderground v.1.15,2013-05-28 11:58:00,
2013-05-28 06:59:00,60.5,58.5,29.69,NNE,32,3.0,8.0,93,0.00,,,0.00,Wunderground v.1.15,2013-05-28 11:59:00,
2013-05-28 07:01:00,60.5,58.5,29.69,NNE,32,3.0,8.0,93,0.00,,,0.00,Wunderground v.1.15,2013-05-28 12:01:00,
2013-05-28 07:04:00,60.5,58.5,29.69,NNE,32,2.0,8.0,93,0.00,,,0.00,Wunderground v.1.15,2013-05-28 12:04:00,
2013-05-28 07:05:00,60.5,58.5,29.69,NNE,32,2.0,8.0,93,0.00,,,0.00,Wunderground v.1.15,2013-05-28 12:05:00,
2013-05-28 07:06:00,60.5,58.5,29.69,NNE,32,2.0,8.0,93,0.00,,,0.00,Wunderground v.1.15,2013-05-28 12:06:00,
2013-05-28 07:08:00,60.5,58.8,29.69,NNE,32,1.0,8.0,94,0.00,,,0.00,Wunderground v.1.15,2013-05-28 12:08:00,
2013-05-28 07:11:00,60.7,59.0,29.69,NNE,32,1.0,8.0,94,0.00,,,0.00,Wunderground v.1.15,2013-05-28 12:11:00,
2013-05-28 07:13:00,60.8,59.1,29.69,NNE,32,0.0,8.0,94,0.00,,,0.00,Wunderground v.1.15,2013-05-28 12:13:00,
2013-05-28 07:14:00,60.8,59.1,29.69,NNE,32,0.0,8.0,94,0.00,,,0.00,Wunderground v.1.15,2013-05-28 12:14:00,
2013-05-28 07:16:00,60.9,59.2,29.69,NNE,32,0.0,8.0,94,0.00,,,0.00,Wunderground v.1.15,2013-05-28 12:16:00,
2013-05-28 07:19:00,61.1,59.4,29.69,NNE,32,0.0,8.0,94,0.00,,,0.00,Wunderground v.1.15,2013-05-28 12:19:00,
2013-05-28 07:20:00,61.1,59.4,29.69,NNE,32,0.0,2.0,94,0.00,,,0.00,Wunderground v.1.15,2013-05-28 12:20:00,
2013-05-28 07:21:00,61.2,59.5,29.69,NNE,32,1.0,2.0,94,0.00,,,0.00,Wunderground v.1.15,2013-05-28 12:21:00,
2013-05-28 07:24:00,61.4,59.7,29.69,NNE,32,1.0,3.0,94,0.00,,,0.00,Wunderground v.1.15,2013-05-28 12:24:00,
2013-05-28 07:26:00,61.5,59.8,29.69,NNE,32,1.0,3.0,94,0.00,,,0.00,Wunderground v.1.15,2013-05-28 12:26:00,
2013-05-28 07:29:00,61.7,60.0,29.69,NNE,32,1.0,3.0,94,0.00,,,0.00,Wunderground v.1.15,2013-05-28 12:29:00,
2013-05-28 07:30:00,61.6,59.9,29.68,NNE,32,1.0,1.0,94,0.00,,,0.00,Wunderground v.1.15,2013-05-28 12:30:00,
2013-05-28 07:33:00,61.8,59.8,29.69,NNE,32,0.0,2.0,93,0.00,,,0.00,Wunderground v.1.15,2013-05-28 12:33:00,
2013-05-28 07:37:00,62.0,60.3,29.68,NNE,32,1.0,2.0,94,0.00,,,0.00,Wunderground v.1.15,2013-05-28 12:37:00,
2013-05-28 07:38:00,62.0,60.3,29.68,NNE,32,1.0,2.0,94,0.00,,,0.00,Wunderground v.1.15,2013-05-28 12:38:00,
2013-05-28 07:39:00,62.1,60.4,29.69,NNE,32,1.0,2.0,94,0.00,,,0.00,Wunderground v.1.15,2013-05-28 12:39:00,
2013-05-28 07:41:00,62.2,60.2,29.69,NNE,32,1.0,1.0,93,0.00,,,0.00,Wunderground v.1.15,2013-05-28 12:41:00,
2013-05-28 07:45:00,62.6,60.5,29.69,NNE,32,1.0,1.0,93,0.00,,,0.00,Wunderground v.1.15,2013-05-28 12:45:00,
2013-05-28 07:46:00,62.7,60.9,29.69,NNE,32,0.0,1.0,94,0.00,,,0.00,Wunderground v.1.15,2013-05-28 12:46:00,
2013-05-28 07:47:00,62.7,60.9,29.69,NNE,32,0.0,1.0,94,0.00,,,0.00,Wunderground v.1.15,2013-05-28 12:47:00,
2013-05-28 07:48:00,62.8,60.7,29.69,NNE,32,0.0,1.0,93,0.00,,,0.00,Wunderground v.1.15,2013-05-28 12:48:00,
2013-05-28 07:49:00,62.8,60.7,29.69,NNE,32,0.0,1.0,93,0.00,,,0.00,Wunderground v.1.15,2013-05-28 12:49:00,
2013-05-28 07:51:00,62.9,60.8,29.69,NNE,32,0.0,0.0,93,0.00,,,0.00,Wunderground v.1.15,2013-05-28 12:51:00,
2013-05-28 07:52:00,63.0,60.9,29.69,NNE,32,0.0,1.0,93,0.00,,,0.00,Wunderground v.1.15,2013-05-28 12:52:00,
2013-05-28 07:55:00,63.2,61.1,29.69,NNE,32,1.0,2.0,93,0.00,,,0.00,Wunderground v.1.15,2013-05-28 12:55:00,
2013-05-28 07:56:00,63.3,61.2,29.69,NNE,32,1.0,2.0,93,0.00,,,0.00,Wunderground v.1.15,2013-05-28 12:56:00,
2013-05-28 07:57:00,63.4,61.3,29.69,NNE,32,1.0,2.0,93,0.00,,,0.00,Wunderground v.1.15,2013-05-28 12:57:00,
2013-05-28 07:59:00,63.5,61.4,29.69,NNE,32,1.0,2.0,93,0.00,,,0.00,Wunderground v.1.15,2013-05-28 12:59:00,
2013-05-28 08:01:00,63.6,61.2,29.70,NNE,32,1.0,8.0,92,0.00,,,0.00,Wunderground v.1.15,2013-05-28 13:01:00,
2013-05-28 08:02:00,63.6,61.2,29.70,NNE,32,1.0,8.0,92,0.00,,,0.00,Wunderground v.1.15,2013-05-28 13:02:00,
2013-05-28 08:06:00,64.1,61.7,29.70,NNE,32,1.0,8.0,92,0.00,,,0.00,Wunderground v.1.15,2013-05-28 13:06:00,
2013-05-28 08:08:00,64.3,61.9,29.70,NNE,32,1.0,8.0,92,0.00,,,0.00,Wunderground v.1.15,2013-05-28 13:08:00,
2013-05-28 08:10:00,64.5,62.1,29.70,NNE,32,2.0,8.0,92,0.00,,,0.00,Wunderground v.1.15,2013-05-28 13:10:00,
2013-05-28 08:11:00,64.6,62.2,29.69,NNE,32,2.0,8.0,92,0.00,,,0.00,Wunderground v.1.15,2013-05-28 13:11:00,
2013-05-28 08:14:00,64.8,62.1,29.69,SSE,161,2.0,8.0,91,0.00,,,0.00,Wunderground v.1.15,2013-05-28 13:14:00,
2013-05-28 08:16:00,64.9,62.2,29.69,South,184,3.0,8.0,91,0.00,,,0.00,Wunderground v.1.15,2013-05-28 13:16:00,
2013-05-28 08:17:00,65.0,62.3,29.69,South,190,3.0,8.0,91,0.00,,,0.00,Wunderground v.1.15,2013-05-28 13:17:00,
2013-05-28 08:20:00,65.1,62.4,29.69,South,186,3.0,3.0,91,0.00,,,0.00,Wunderground v.1.15,2013-05-28 13:20:00,
2013-05-28 08:21:00,65.1,62.4,29.69,South,190,4.0,5.0,91,0.00,,,0.00,Wunderground v.1.15,2013-05-28 13:21:00,
2013-05-28 08:22:00,65.2,62.5,29.69,South,190,4.0,8.0,91,0.00,,,0.00,Wunderground v.1.15,2013-05-28 13:22:00,
2013-05-28 08:23:00,65.2,62.5,29.69,SSW,196,4.0,8.0,91,0.00,,,0.00,Wunderground v.1.15,2013-05-28 13:23:00,
2013-05-28 08:27:00,65.3,62.3,29.69,SSW,206,4.0,8.0,90,0.00,,,0.00,Wunderground v.1.15,2013-05-28 13:27:00,
2013-05-28 08:29:00,65.3,62.3,29.69,SSW,192,4.0,8.0,90,0.00,,,0.00,Wunderground v.1.15,2013-05-28 13:29:00,
2013-05-28 08:30:00,65.4,62.4,29.69,SSW,194,4.0,4.0,90,0.00,,,0.00,Wunderground v.1.15,2013-05-28 13:30:00,
2013-05-28 08:33:00,65.6,62.6,29.69,SSW,194,4.0,8.0,90,0.00,,,0.00,Wunderground v.1.15,2013-05-28 13:33:00,
2013-05-28 08:34:00,65.7,62.7,29.69,South,179,3.0,8.0,90,0.00,,,0.00,Wunderground v.1.15,2013-05-28 13:34:00,
2013-05-28 08:35:00,65.8,62.8,29.69,South,179,3.0,8.0,90,0.00,,,0.00,Wunderground v.1.15,2013-05-28 13:35:00,
2013-05-28 08:38:00,65.9,62.6,29.69,South,175,3.0,8.0,89,0.00,,,0.00,Wunderground v.1.15,2013-05-28 13:38:00,
2013-05-28 08:39:00,66.0,62.7,29.69,South,171,3.0,8.0,89,0.00,,,0.00,Wunderground v.1.15,2013-05-28 13:39:00,
2013-05-28 08:40:00,66.1,62.8,29.69,South,171,3.0,3.0,89,0.00,,,0.00,Wunderground v.1.15,2013-05-28 13:40:00,
2013-05-28 08:42:00,66.3,63.0,29.69,SSW,205,3.0,8.0,89,0.00,,,0.00,Wunderground v.1.15,2013-05-28 13:42:00,
2013-05-28 08:44:00,66.4,63.1,29.69,SSW,198,3.0,8.0,89,0.00,,,0.00,Wunderground v.1.15,2013-05-28 13:44:00,
2013-05-28 08:45:00,66.5,62.8,29.69,SSW,198,3.0,8.0,88,0.00,,,0.00,Wunderground v.1.15,2013-05-28 13:45:00,
2013-05-28 08:49:00,66.5,62.8,29.69,South,179,3.0,8.0,88,0.00,,,0.00,Wunderground v.1.15,2013-05-28 13:49:00,
2013-05-28 08:50:00,66.6,62.9,29.69,South,179,4.0,4.0,88,0.00,,,0.00,Wunderground v.1.15,2013-05-28 13:50:00,
2013-05-28 08:51:00,66.7,63.0,29.69,South,180,4.0,5.0,88,0.00,,,0.00,Wunderground v.1.15,2013-05-28 13:51:00,
2013-05-28 08:53:00,66.8,63.1,29.69,South,181,3.0,8.0,88,0.00,,,0.00,Wunderground v.1.15,2013-05-28 13:53:00,
2013-05-28 08:55:00,67.0,63.0,29.69,South,181,3.0,8.0,87,0.00,,,0.00,Wunderground v.1.15,2013-05-28 13:55:00,
2013-05-28 08:56:00,67.0,62.7,29.69,South,182,3.0,8.0,86,0.00,,,0.00,Wunderground v.1.15,2013-05-28 13:56:00,
2013-05-28 08:57:00,67.0,62.7,29.69,South,182,3.0,8.0,86,0.00,,,0.00,Wunderground v.1.15,2013-05-28 13:57:00,
2013-05-28 08:59:00,67.1,62.4,29.69,South,182,3.0,8.0,85,0.00,,,0.00,Wunderground v.1.15,2013-05-28 13:59:00,
2013-05-28 09:02:00,67.4,63.1,29.68,SSE,168,3.0,8.0,86,0.00,,,0.00,Wunderground v.1.15,2013-05-28 14:02:00,
2013-05-28 09:04:00,67.5,62.5,29.68,SSE,155,3.0,8.0,84,0.00,,,0.00,Wunderground v.1.15,2013-05-28 14:04:00,
2013-05-28 09:05:00,67.6,62.9,29.68,SSE,156,3.0,8.0,85,0.00,,,0.00,Wunderground v.1.15,2013-05-28 14:05:00,
2013-05-28 09:06:00,67.8,63.1,29.68,SSE,156,3.0,8.0,85,0.00,,,0.00,Wunderground v.1.15,2013-05-28 14:06:00,
2013-05-28 09:09:00,68.0,63.0,29.68,SSE,156,3.0,8.0,84,0.00,,,0.00,Wunderground v.1.15,2013-05-28 14:09:00,
2013-05-28 09:11:00,68.1,62.7,29.68,SSE,157,3.0,4.0,83,0.00,,,0.00,Wunderground v.1.15,2013-05-28 14:11:00,
2013-05-28 09:12:00,68.1,62.7,29.68,South,169,3.0,8.0,83,0.00,,,0.00,Wunderground v.1.15,2013-05-28 14:12:00,
2013-05-28 09:14:00,68.1,62.0,29.68,South,169,3.0,8.0,81,0.00,,,0.00,Wunderground v.1.15,2013-05-28 14:14:00,
2013-05-28 09:16:00,68.3,62.6,29.68,South,170,3.0,8.0,82,0.00,,,0.00,Wunderground v.1.15,2013-05-28 14:16:00,
2013-05-28 09:18:00,68.6,62.5,29.68,South,171,3.0,8.0,81,0.00,,,0.00,Wunderground v.1.15,2013-05-28 14:18:00,
2013-05-28 09:19:00,68.6,62.5,29.68,South,169,3.0,8.0,81,0.00,,,0.00,Wunderground v.1.15,2013-05-28 14:19:00,
2013-05-28 09:20:00,68.7,62.6,29.68,South,169,3.0,3.0,81,0.00,,,0.00,Wunderground v.1.15,2013-05-28 14:20:00,
2013-05-28 09:24:00,69.2,62.8,29.68,South,169,2.0,3.0,80,0.00,,,0.00,Wunderground v.1.15,2013-05-28 14:24:00,
2013-05-28 09:25:00,69.3,62.9,29.68,South,169,2.0,3.0,80,0.00,,,0.00,Wunderground v.1.15,2013-05-28 14:25:00,
2013-05-28 09:26:00,69.4,63.0,29.68,South,169,2.0,3.0,80,0.00,,,0.00,Wunderground v.1.15,2013-05-28 14:26:00,
2013-05-28 09:30:00,70.1,64.3,29.67,South,169,1.0,2.0,82,0.00,,,0.00,Wunderground v.1.15,2013-05-28 14:30:00,
2013-05-28 09:31:00,70.3,63.8,29.67,South,171,2.0,2.0,80,0.00,,,0.00,Wunderground v.1.15,2013-05-28 14:31:00,
2013-05-28 09:32:00,70.4,63.9,29.67,South,171,2.0,2.0,80,0.00,,,0.00,Wunderground v.1.15,2013-05-28 14:32:00,
2013-05-28 09:33:00,70.4,63.9,29.67,South,171,2.0,2.0,80,0.00,,,0.00,Wunderground v.1.15,2013-05-28 14:33:00,
2013-05-28 09:37:00,70.6,63.8,29.67,South,171,2.0,2.0,79,0.00,,,0.00,Wunderground v.1.15,2013-05-28 14:37:00,
2013-05-28 09:42:00,70.6,63.4,29.67,South,173,1.0,2.0,78,0.00,,,0.00,Wunderground v.1.15,2013-05-28 14:42:00,
2013-05-28 09:43:00,70.6,63.4,29.67,South,173,1.0,2.0,78,0.00,,,0.00,Wunderground v.1.15,2013-05-28 14:43:00,
2013-05-28 09:44:00,70.5,63.7,29.67,South,173,1.0,2.0,79,0.00,,,0.00,Wunderground v.1.15,2013-05-28 14:44:00,
2013-05-28 09:48:00,70.7,63.9,29.67,South,175,1.0,2.0,79,0.00,,,0.00,Wunderground v.1.15,2013-05-28 14:48:00,
2013-05-28 09:49:00,70.7,63.9,29.67,South,175,1.0,2.0,79,0.00,,,0.00,Wunderground v.1.15,2013-05-28 14:49:00,
2013-05-28 09:51:00,70.7,63.9,29.67,West,259,2.0,5.0,79,0.00,,,0.00,Wunderground v.1.15,2013-05-28 14:51:00,
2013-05-28 09:57:00,70.7,63.5,29.67,WSW,257,2.0,5.0,78,0.00,,,0.00,Wunderground v.1.15,2013-05-28 14:57:00,
2013-05-28 10:00:00,70.8,63.6,29.67,WSW,253,3.0,3.0,78,0.00,,,0.00,Wunderground v.1.15,2013-05-28 15:00:00,
2013-05-28 10:01:00,70.9,63.7,29.67,WSW,250,3.0,7.0,78,0.00,,,0.00,Wunderground v.1.15,2013-05-28 15:01:00,
2013-05-28 10:03:00,71.0,64.2,29.67,WSW,250,3.0,7.0,79,0.00,,,0.00,Wunderground v.1.15,2013-05-28 15:03:00,
2013-05-28 10:06:00,71.1,64.6,29.67,WSW,250,3.0,7.0,80,0.00,,,0.00,Wunderground v.1.15,2013-05-28 15:06:00,
2013-05-28 10:07:00,71.1,64.3,29.67,WSW,250,3.0,7.0,79,0.00,,,0.00,Wunderground v.1.15,2013-05-28 15:07:00,
2013-05-28 10:08:00,71.1,64.3,29.68,WSW,251,3.0,7.0,79,0.00,,,0.00,Wunderground v.1.15,2013-05-28 15:08:00,
2013-05-28 10:09:00,71.2,64.4,29.68,WSW,251,3.0,7.0,79,0.00,,,0.00,Wunderground v.1.15,2013-05-28 15:09:00,
2013-05-28 10:12:00,71.2,64.4,29.67,WSW,251,3.0,7.0,79,0.00,,,0.00,Wunderground v.1.15,2013-05-28 15:12:00,
2013-05-28 10:14:00,71.3,64.4,29.67,West,279,2.0,7.0,79,0.00,,,0.00,Wunderground v.1.15,2013-05-28 15:14:00,
2013-05-28 10:16:00,71.3,64.1,29.67,West,281,3.0,7.0,78,0.00,,,0.00,Wunderground v.1.15,2013-05-28 15:16:00,
2013-05-28 10:17:00,71.3,64.1,29.67,West,281,3.0,7.0,78,0.00,,,0.00,Wunderground v.1.15,2013-05-28 15:17:00,
2013-05-28 10:20:00,71.5,64.6,29.67,WNW,284,3.0,3.0,79,0.00,,,0.00,Wunderground v.1.15,2013-05-28 15:20:00,
2013-05-28 10:21:00,71.6,65.1,29.67,North,355,3.0,4.0,80,0.00,,,0.00,Wunderground v.1.15,2013-05-28 15:21:00,
2013-05-28 10:23:00,71.8,64.9,29.68,NNW,331,4.0,7.0,79,0.00,,,0.00,Wunderground v.1.15,2013-05-28 15:23:00,
2013-05-28 10:24:00,71.8,64.6,29.68,NNW,331,3.0,7.0,78,0.00,,,0.00,Wunderground v.1.15,2013-05-28 15:24:00,
2013-05-28 10:28:00,71.7,64.5,29.68,NW,312,3.0,7.0,78,0.00,,,0.00,Wunderground v.1.15,2013-05-28 15:28:00,
2013-05-28 10:29:00,71.7,64.8,29.68,WNW,294,3.0,7.0,79,0.00,,,0.00,Wunderground v.1.15,2013-05-28 15:29:00,
2013-05-28 10:31:00,71.9,65.4,29.68,NNW,336,4.0,7.0,80,0.00,,,0.00,Wunderground v.1.15,2013-05-28 15:31:00,
2013-05-28 10:33:00,71.9,65.0,29.68,NNW,328,4.0,7.0,79,0.00,,,0.00,Wunderground v.1.15,2013-05-28 15:33:00,
2013-05-28 10:37:00,72.0,64.8,29.69,WNW,300,4.0,7.0,78,0.00,,,0.00,Wunderground v.1.15,2013-05-28 15:37:00,
2013-05-28 10:39:00,72.0,64.8,29.69,WNW,301,4.0,7.0,78,0.00,,,0.00,Wunderground v.1.15,2013-05-28 15:39:00,
2013-05-28 10:40:00,72.0,64.4,29.69,WNW,300,4.0,7.0,77,0.00,,,0.00,Wunderground v.1.15,2013-05-28 15:40:00,
2013-05-28 10:44:00,72.0,64.4,29.69,NNW,341,4.0,8.0,77,0.00,,,0.00,Wunderground v.1.15,2013-05-28 15:44:00,
2013-05-28 10:46:00,72.2,65.0,29.69,NNW,346,4.0,8.0,78,0.00,,,0.00,Wunderground v.1.15,2013-05-28 15:46:00,
2013-05-28 10:47:00,72.2,64.6,29.69,NNW,333,4.0,8.0,77,0.00,,,0.00,Wunderground v.1.15,2013-05-28 15:47:00,
2013-05-28 10:52:00,72.2,65.0,29.69,WNW,286,3.0,7.0,78,0.00,,,0.00,Wunderground v.1.15,2013-05-28 15:52:00,
2013-05-28 10:53:00,72.3,64.7,29.70,NW,306,3.0,7.0,77,0.00,,,0.00,Wunderground v.1.15,2013-05-28 15:53:00,
2013-05-28 10:54:00,72.3,63.9,29.70,NW,306,3.0,7.0,75,0.00,,,0.00,Wunderground v.1.15,2013-05-28 15:54:00,
2013-05-28 10:56:00,72.5,64.5,29.70,NW,306,3.0,7.0,76,0.00,,,0.00,Wunderground v.1.15,2013-05-28 15:56:00,
2013-05-28 10:57:00,72.5,64.1,29.70,NNE,26,3.0,7.0,75,0.00,,,0.00,Wunderground v.1.15,2013-05-28 15:57:00,
2013-05-28 11:00:00,72.6,63.8,29.70,NNW,338,3.0,3.0,74,0.00,,,0.00,Wunderground v.1.15,2013-05-28 16:00:00,
2013-05-28 11:07:00,72.9,64.5,29.70,NNE,28,3.0,7.0,75,0.00,,,0.00,Wunderground v.1.15,2013-05-28 16:07:00,
2013-05-28 11:08:00,72.9,63.7,29.70,NNE,22,3.0,7.0,73,0.00,,,0.00,Wunderground v.1.15,2013-05-28 16:08:00,
2013-05-28 11:13:00,73.3,63.7,29.71,NW,325,3.0,7.0,72,0.00,,,0.00,Wunderground v.1.15,2013-05-28 16:13:00,
2013-05-28 11:14:00,73.4,63.8,29.71,NW,325,3.0,7.0,72,0.00,,,0.00,Wunderground v.1.15,2013-05-28 16:14:00,
2013-05-28 11:16:00,73.4,63.4,29.71,NW,325,3.0,7.0,71,0.00,,,0.00,Wunderground v.1.15,2013-05-28 16:16:00,
2013-05-28 11:17:00,73.5,64.3,29.71,NW,325,3.0,7.0,73,0.00,,,0.00,Wunderground v.1.15,2013-05-28 16:17:00,
2013-05-28 11:19:00,73.8,65.4,29.71,NNE,21,3.0,7.0,75,0.00,,,0.00,Wunderground v.1.15,2013-05-28 16:19:00,
2013-05-28 11:20:00,73.8,64.6,29.71,North,9,3.0,4.0,73,0.00,,,0.00,Wunderground v.1.15,2013-05-28 16:20:00,
2013-05-28 11:21:00,73.9,64.7,29.71,NNE,13,3.0,5.0,73,0.00,,,0.00,Wunderground v.1.15,2013-05-28 16:21:00,
2013-05-28 11:25:00,74.1,64.5,29.71,NNW,329,4.0,5.0,72,0.00,,,0.00,Wunderground v.1.15,2013-05-28 16:25:00,
2013-05-28 11:26:00,74.1,64.5,29.71,NNW,330,4.0,5.0,72,0.00,,,0.00,Wunderground v.1.15,2013-05-28 16:26:00,
2013-05-28 11:29:00,74.0,64.0,29.71,NNW,333,3.0,5.0,71,0.00,,,0.00,Wunderground v.1.15,2013-05-28 16:29:00,
2013-05-28 11:30:00,74.1,64.9,29.71,NNW,333,3.0,3.0,73,0.00,,,0.00,Wunderground v.1.15,2013-05-28 16:30:00,
2013-05-28 11:33:00,74.4,64.8,29.72,SW,232,2.0,3.0,72,0.00,,,0.00,Wunderground v.1.15,2013-05-28 16:33:00,
2013-05-28 11:35:00,74.6,65.4,29.72,WSW,245,2.0,5.0,73,0.00,,,0.00,Wunderground v.1.15,2013-05-28 16:35:00,
2013-05-28 11:37:00,74.8,66.0,29.72,West,275,2.0,5.0,74,0.00,,,0.00,Wunderground v.1.15,2013-05-28 16:37:00,
2013-05-28 11:40:00,74.7,64.3,29.72,West,259,3.0,5.0,70,0.00,,,0.00,Wunderground v.1.15,2013-05-28 16:40:00,
2013-05-28 11:42:00,74.4,64.0,29.72,West,273,4.0,5.0,70,0.00,,,0.00,Wunderground v.1.15,2013-05-28 16:42:00,
2013-05-28 11:43:00,74.3,63.9,29.72,West,273,4.0,5.0,70,0.00,,,0.00,Wunderground v.1.15,2013-05-28 16:43:00,
2013-05-28 11:46:00,73.9,63.5,29.72,West,273,4.0,5.0,70,0.00,,,0.00,Wunderground v.1.15,2013-05-28 16:46:00,
2013-05-28 11:48:00,74.1,64.9,29.72,WNW,298,4.0,5.0,73,0.00,,,0.00,Wunderground v.1.15,2013-05-28 16:48:00,
2013-05-28 11:50:00,74.3,64.7,29.71,NW,321,4.0,4.0,72,0.00,,,0.00,Wunderground v.1.15,2013-05-28 16:50:00,
2013-05-28 11:54:00,74.5,64.1,29.71,NW,308,4.0,5.0,70,0.00,,,0.00,Wunderground v.1.15,2013-05-28 16:54:00,
2013-05-28 11:55:00,74.4,64.0,29.71,NW,309,4.0,5.0,70,0.00,,,0.00,Wunderground v.1.15,2013-05-28 16:55:00,
2013-05-28 11:56:00,74.3,63.5,29.71,NW,309,4.0,5.0,69,0.00,,,0.00,Wunderground v.1.15,2013-05-28 16:56:00,
2013-05-28 11:57:00,74.2,63.4,29.71,NW,309,4.0,5.0,69,0.00,,,0.00,Wunderground v.1.15,2013-05-28 16:57:00,
2013-05-28 12:01:00,74.2,65.4,29.72,North,360,3.0,8.0,74,0.00,,,0.00,Wunderground v.1.15,2013-05-28 17:01:00,
2013-05-28 12:02:00,74.3,65.5,29.72,NNE,21,2.0,8.0,74,0.00,,,0.00,Wunderground v.1.15,2013-05-28 17:02:00,
2013-05-28 12:03:00,74.4,65.2,29.72,NNE,31,3.0,8.0,73,0.00,,,0.00,Wunderground v.1.15,2013-05-28 17:03:00,
2013-05-28 12:04:00,74.5,65.3,29.71,NNW,346,3.0,8.0,73,0.00,,,0.00,Wunderground v.1.15,2013-05-28 17:04:00,
2013-05-28 12:07:00,74.9,66.1,29.71,NNW,346,3.0,8.0,74,0.00,,,0.00,Wunderground v.1.15,2013-05-28 17:07:00,
2013-05-28 12:08:00,75.0,65.4,29.71,NNW,347,3.0,8.0,72,0.00,,,0.00,Wunderground v.1.15,2013-05-28 17:08:00,
2013-05-28 12:11:00,74.9,64.9,29.71,North,360,3.0,4.0,71,0.00,,,0.00,Wunderground v.1.15,2013-05-28 17:11:00,
2013-05-28 12:13:00,74.9,65.7,29.71,NW,323,3.0,8.0,73,0.00,,,0.00,Wunderground v.1.15,2013-05-28 17:13:00,
2013-05-28 12:14:00,75.0,66.1,29.71,North,11,3.0,8.0,74,0.00,,,0.00,Wunderground v.1.15,2013-05-28 17:14:00,
2013-05-28 12:15:00,74.9,64.9,29.71,NE,45,3.0,8.0,71,0.00,,,0.00,Wunderground v.1.15,2013-05-28 17:15:00,
2013-05-28 12:17:00,74.7,64.7,29.71,NW,316,3.0,8.0,71,0.00,,,0.00,Wunderground v.1.15,2013-05-28 17:17:00,
2013-05-28 12:18:00,74.6,64.6,29.71,NW,316,3.0,8.0,71,0.00,,,0.00,Wunderground v.1.15,2013-05-28 17:18:00,
2013-05-28 12:24:00,74.4,65.2,29.71,NE,40,3.0,8.0,73,0.00,,,0.00,Wunderground v.1.15,2013-05-28 17:24:00,
2013-05-28 12:25:00,74.4,65.2,29.71,NE,37,3.0,8.0,73,0.00,,,0.00,Wunderground v.1.15,2013-05-28 17:25:00,
2013-05-28 12:27:00,74.4,66.0,29.71,NNE,16,3.0,8.0,75,0.00,,,0.00,Wunderground v.1.15,2013-05-28 17:27:00,
2013-05-28 12:29:00,74.6,66.1,29.71,NNE,32,4.0,8.0,75,0.00,,,0.00,Wunderground v.1.15,2013-05-28 17:29:00,
2013-05-28 12:32:00,74.9,66.1,29.71,NE,51,4.0,8.0,74,0.00,,,0.00,Wunderground v.1.15,2013-05-28 17:32:00,
2013-05-28 12:33:00,75.1,66.2,29.71,NE,51,4.0,8.0,74,0.00,,,0.00,Wunderground v.1.15,2013-05-28 17:33:00,
2013-05-28 12:34:00,75.3,66.4,29.71,NNW,331,4.0,8.0,74,0.00,,,0.00,Wunderground v.1.15,2013-05-28 17:34:00,
2013-05-28 12:35:00,75.3,65.2,29.71,NNW,332,3.0,8.0,71,0.00,,,0.00,Wunderground v.1.15,2013-05-28 17:35:00,
2013-05-28 12:37:00,75.3,65.2,29.71,NNW,342,4.0,8.0,71,0.00,,,0.00,Wunderground v.1.15,2013-05-28 17:37:00,
2013-05-28 12:43:00,75.0,66.1,29.71,ENE,64,5.0,8.0,74,0.00,,,0.00,Wunderground v.1.15,2013-05-28 17:43:00,
2013-05-28 12:44:00,75.0,66.1,29.71,ENE,75,5.0,8.0,74,0.00,,,0.00,Wunderground v.1.15,2013-05-28 17:44:00,
2013-05-28 12:47:00,75.1,66.6,29.71,NNE,17,5.0,8.0,75,0.00,,,0.00,Wunderground v.1.15,2013-05-28 17:47:00,
2013-05-28 12:50:00,75.3,67.2,29.71,NNE,15,5.0,5.0,76,0.00,,,0.00,Wunderground v.1.15,2013-05-28 17:50:00,
2013-05-28 12:53:00,75.6,66.7,29.71,North,355,5.0,8.0,74,0.00,,,0.00,Wunderground v.1.15,2013-05-28 17:53:00,
2013-05-28 12:55:00,75.7,66.8,29.71,NE,34,5.0,8.0,74,0.00,,,0.00,Wunderground v.1.15,2013-05-28 17:55:00,
2013-05-28 12:59:00,75.8,67.3,29.71,NE,39,5.0,12.0,75,0.00,,,0.00,Wunderground v.1.15,2013-05-28 17:59:00,
2013-05-28 13:00:00,75.6,66.3,29.71,NE,42,5.0,8.0,73,0.00,,,0.00,Wunderground v.1.15,2013-05-28 18:00:00,
2013-05-28 13:01:00,75.4,66.5,29.71,NNE,17,5.0,8.0,74,0.00,,,0.00,Wunderground v.1.15,2013-05-28 18:01:00,
2013-05-28 13:03:00,75.2,66.7,29.71,NE,34,5.0,8.0,75,0.00,,,0.00,Wunderground v.1.15,2013-05-28 18:03:00,
2013-05-28 13:04:00,75.2,67.1,29.71,North,360,5.0,8.0,76,0.00,,,0.00,Wunderground v.1.15,2013-05-28 18:04:00,
2013-05-28 13:08:00,75.0,65.8,29.71,NE,38,5.0,8.0,73,0.00,,,0.00,Wunderground v.1.15,2013-05-28 18:08:00,
2013-05-28 13:10:00,74.8,65.2,29.71,NNE,23,4.0,8.0,72,0.00,,,0.00,Wunderground v.1.15,2013-05-28 18:10:00,
2013-05-28 13:11:00,74.9,65.7,29.71,NNE,16,4.0,8.0,73,0.00,,,0.00,Wunderground v.1.15,2013-05-28 18:11:00,
2013-05-28 13:13:00,74.8,66.0,29.71,NNE,27,4.0,8.0,74,0.00,,,0.00,Wunderground v.1.15,2013-05-28 18:13:00,
2013-05-28 13:14:00,74.9,66.4,29.71,NE,47,4.0,8.0,75,0.00,,,0.00,Wunderground v.1.15,2013-05-28 18:14:00,
2013-05-28 13:16:00,75.0,66.1,29.71,NE,40,4.0,8.0,74,0.00,,,0.00,Wunderground v.1.15,2013-05-28 18:16:00,
2013-05-28 13:17:00,75.0,66.1,29.71,ENE,69,5.0,8.0,74,0.00,,,0.00,Wunderground v.1.15,2013-05-28 18:17:00,
2013-05-28 13:20:00,74.9,66.1,29.71,ENE,65,5.0,5.0,74,0.00,,,0.00,Wunderground v.1.15,2013-05-28 18:20:00,
2013-05-28 13:21:00,74.9,66.1,29.71,ENE,69,4.0,8.0,74,0.00,,,0.00,Wunderground v.1.15,2013-05-28 18:21:00,
2013-05-28 13:24:00,74.9,66.1,29.71,NE,54,4.0,8.0,74,0.00,,,0.00,Wunderground v.1.15,2013-05-28 18:24:00,
2013-05-28 13:25:00,74.8,65.6,29.71,NE,51,4.0,8.0,73,0.00,,,0.00,Wunderground v.1.15,2013-05-28 18:25:00,
2013-05-28 13:26:00,74.8,65.6,29.71,NE,56,4.0,8.0,73,0.00,,,0.00,Wunderground v.1.15,2013-05-28 18:26:00,
2013-05-28 13:28:00,74.5,65.3,29.71,ENE,57,5.0,8.0,73,0.00,,,0.00,Wunderground v.1.15,2013-05-28 18:28:00,
2013-05-28 13:29:00,74.4,64.8,29.71,ENE,57,5.0,8.0,72,0.00,,,0.00,Wunderground v.1.15,2013-05-28 18:29:00,
2013-05-28 13:33:00,74.4,66.0,29.71,NE,54,6.0,8.0,75,0.00,,,0.00,Wunderground v.1.15,2013-05-28 18:33:00,
2013-05-28 13:35:00,74.3,64.7,29.71,NE,42,6.0,8.0,72,0.00,,,0.00,Wunderground v.1.15,2013-05-28 18:35:00,
2013-05-28 13:36:00,74.3,65.1,29.71,NE,42,5.0,8.0,73,0.00,,,0.00,Wunderground v.1.15,2013-05-28 18:36:00,
2013-05-28 13:38:00,74.2,64.2,29.71,NW,323,4.0,8.0,71,0.00,,,0.00,Wunderground v.1.15,2013-05-28 18:38:00,
2013-05-28 13:39:00,74.2,64.6,29.71,NW,310,4.0,8.0,72,0.00,,,0.00,Wunderground v.1.15,2013-05-28 18:39:00,
2013-05-28 13:41:00,74.2,64.2,29.71,NNW,331,3.0,8.0,71,0.00,,,0.00,Wunderground v.1.15,2013-05-28 18:41:00,
2013-05-28 13:43:00,74.4,65.6,29.71,North,360,3.0,8.0,74,0.00,,,0.00,Wunderground v.1.15,2013-05-28 18:43:00,
2013-05-28 13:45:00,74.6,65.8,29.71,North,360,2.0,8.0,74,0.00,,,0.00,Wunderground v.1.15,2013-05-28 18:45:00,
2013-05-28 13:49:00,75.2,66.3,29.71,NE,45,4.0,9.0,74,0.00,,,0.00,Wunderground v.1.15,2013-05-28 18:49:00,
2013-05-28 13:50:00,75.2,65.9,29.71,NE,46,4.0,4.0,73,0.00,,,0.00,Wunderground v.1.15,2013-05-28 18:50:00,
2013-05-28 13:53:00,75.0,65.0,29.71,NE,46,4.0,8.0,71,0.00,,,0.00,Wunderground v.1.15,2013-05-28 18:53:00,
2013-05-28 13:55:00,74.9,65.3,29.71,ENE,60,4.0,8.0,72,0.00,,,0.00,Wunderground v.1.15,2013-05-28 18:55:00,
2013-05-28 13:56:00,75.0,65.8,29.72,ENE,69,4.0,8.0,73,0.00,,,0.00,Wunderground v.1.15,2013-05-28 18:56:00,
2013-05-28 13:58:00,74.9,64.9,29.72,ENE,71,3.0,8.0,71,0.00,,,0.00,Wunderground v.1.15,2013-05-28 18:58:00,
2013-05-28 14:00:00,74.9,65.3,29.72,ENE,71,3.0,3.0,72,0.00,,,0.00,Wunderground v.1.15,2013-05-28 19:00:00,
2013-05-28 14:03:00,74.9,64.9,29.72,ENE,71,2.0,8.0,71,0.00,,,0.00,Wunderground v.1.15,2013-05-28 19:03:00,
2013-05-28 14:04:00,75.0,65.0,29.72,ENE,71,2.0,8.0,71,0.00,,,0.00,Wunderground v.1.15,2013-05-28 19:04:00,
2013-05-28 14:09:00,75.4,65.7,29.72,ENE,61,2.0,8.0,72,0.00,,,0.00,Wunderground v.1.15,2013-05-28 19:09:00,
2013-05-28 14:10:00,75.3,65.2,29.72,ENE,66,3.0,8.0,71,0.00,,,0.00,Wunderground v.1.15,2013-05-28 19:10:00,
2013-05-28 14:12:00,75.1,64.6,29.72,ENE,65,3.0,8.0,70,0.00,,,0.00,Wunderground v.1.15,2013-05-28 19:12:00,
2013-05-28 14:13:00,74.9,64.5,29.72,NE,55,3.0,8.0,70,0.00,,,0.00,Wunderground v.1.15,2013-05-28 19:13:00,
2013-05-28 14:18:00,74.6,65.4,29.72,ENE,57,3.0,8.0,73,0.00,,,0.00,Wunderground v.1.15,2013-05-28 19:18:00,
2013-05-28 14:19:00,74.6,65.0,29.72,ENE,59,3.0,8.0,72,0.00,,,0.00,Wunderground v.1.15,2013-05-28 19:19:00,
2013-05-28 14:21:00,74.5,64.5,29.72,ENE,65,3.0,4.0,71,0.00,,,0.00,Wunderground v.1.15,2013-05-28 19:21:00,
2013-05-28 14:24:00,74.5,63.7,29.72,ENE,65,3.0,4.0,69,0.00,,,0.00,Wunderground v.1.15,2013-05-28 19:24:00,
2013-05-28 14:25:00,74.6,64.6,29.72,ENE,65,3.0,4.0,71,0.00,,,0.00,Wunderground v.1.15,2013-05-28 19:25:00,
2013-05-28 14:26:00,74.6,64.2,29.72,ENE,65,3.0,4.0,70,0.00,,,0.00,Wunderground v.1.15,2013-05-28 19:26:00,
2013-05-28 14:27:00,74.6,64.6,29.72,ENE,65,3.0,4.0,71,0.00,,,0.00,Wunderground v.1.15,2013-05-28 19:27:00,
2013-05-28 14:29:00,74.8,66.3,29.72,ENE,65,3.0,4.0,75,0.00,,,0.00,Wunderground v.1.15,2013-05-28 19:29:00,
2013-05-28 14:30:00,74.9,66.1,29.72,ENE,66,2.0,3.0,74,0.00,,,0.00,Wunderground v.1.15,2013-05-28 19:30:00,
2013-05-28 14:33:00,74.9,65.3,29.72,ESE,104,3.0,6.0,72,0.00,,,0.00,Wunderground v.1.15,2013-05-28 19:33:00,
2013-05-28 14:34:00,74.8,64.8,29.72,ESE,104,3.0,6.0,71,0.00,,,0.00,Wunderground v.1.15,2013-05-28 19:34:00,
2013-05-28 14:36:00,74.7,64.3,29.72,ESE,103,2.0,6.0,70,0.00,,,0.00,Wunderground v.1.15,2013-05-28 19:36:00,
2013-05-28 14:38:00,74.7,64.3,29.72,ESE,104,2.0,6.0,70,0.00,,,0.00,Wunderground v.1.15,2013-05-28 19:38:00,
2013-05-28 14:41:00,74.8,65.2,29.72,ESE,104,2.0,2.0,72,0.00,,,0.00,Wunderground v.1.15,2013-05-28 19:41:00,
2013-05-28 14:42:00,74.9,64.9,29.73,ESE,103,1.0,2.0,71,0.00,,,0.00,Wunderground v.1.15,2013-05-28 19:42:00,
2013-05-28 14:45:00,74.9,64.0,29.73,ESE,103,1.0,2.0,69,0.00,,,0.00,Wunderground v.1.15,2013-05-28 19:45:00,
2013-05-28 14:47:00,75.0,64.5,29.73,ESE,104,1.0,3.0,70,0.00,,,0.00,Wunderground v.1.15,2013-05-28 19:47:00,
2013-05-28 14:48:00,75.1,64.6,29.73,ESE,103,1.0,3.0,70,0.00,,,0.00,Wunderground v.1.15,2013-05-28 19:48:00,
2013-05-28 14:53:00,75.1,65.1,29.73,NNE,32,2.0,2.0,71,0.00,,,0.00,Wunderground v.1.15,2013-05-28 19:53:00,
2013-05-28 14:54:00,75.1,65.1,29.73,NNE,32,2.0,2.0,71,0.00,,,0.00,Wunderground v.1.15,2013-05-28 19:54:00,
2013-05-28 14:55:00,75.1,64.6,29.73,NNE,32,2.0,2.0,70,0.00,,,0.00,Wunderground v.1.15,2013-05-28 19:55:00,
2013-05-28 14:56:00,75.1,64.6,29.73,NNE,32,2.0,2.0,70,0.00,,,0.00,Wunderground v.1.15,2013-05-28 19:56:00,
2013-05-28 14:58:00,75.2,65.1,29.73,NE,52,3.0,5.0,71,0.00,,,0.00,Wunderground v.1.15,2013-05-28 19:58:00,
2013-05-28 14:59:00,75.2,64.7,29.73,NE,46,3.0,5.0,70,0.00,,,0.00,Wunderground v.1.15,2013-05-28 19:59:00,
2013-05-28 15:02:00,75.2,64.3,29.73,NE,46,3.0,9.0,69,0.00,,,0.00,Wunderground v.1.15,2013-05-28 20:02:00,
2013-05-28 15:03:00,75.2,64.3,29.73,ENE,63,3.0,9.0,69,0.00,,,0.00,Wunderground v.1.15,2013-05-28 20:03:00,
2013-05-28 15:04:00,75.2,64.7,29.73,ENE,63,3.0,9.0,70,0.00,,,0.00,Wunderground v.1.15,2013-05-28 20:04:00,
2013-05-28 15:05:00,75.2,65.1,29.73,ENE,63,3.0,9.0,71,0.00,,,0.00,Wunderground v.1.15,2013-05-28 20:05:00,
2013-05-28 15:07:00,75.2,64.3,29.73,ENE,63,3.0,9.0,69,0.00,,,0.00,Wunderground v.1.15,2013-05-28 20:07:00,
2013-05-28 15:08:00,75.1,64.2,29.73,ENE,63,2.0,9.0,69,0.00,,,0.00,Wunderground v.1.15,2013-05-28 20:08:00,
2013-05-28 15:09:00,75.1,64.2,29.73,NNE,32,2.0,9.0,69,0.00,,,0.00,Wunderground v.1.15,2013-05-28 20:09:00,
2013-05-28 15:10:00,75.1,63.8,29.73,NE,35,2.0,9.0,68,0.00,,,0.00,Wunderground v.1.15,2013-05-28 20:10:00,
2013-05-28 15:13:00,74.9,63.2,29.73,NE,34,2.0,9.0,67,0.00,,,0.00,Wunderground v.1.15,2013-05-28 20:13:00,
2013-05-28 15:15:00,74.8,63.5,29.73,NE,35,2.0,9.0,68,0.00,,,0.00,Wunderground v.1.15,2013-05-28 20:15:00,
2013-05-28 15:17:00,74.8,63.5,29.73,NE,34,2.0,9.0,68,0.00,,,0.00,Wunderground v.1.15,2013-05-28 20:17:00,
2013-05-28 15:18:00,74.8,63.9,29.73,NE,35,2.0,9.0,69,0.00,,,0.00,Wunderground v.1.15,2013-05-28 20:18:00,
2013-05-28 15:23:00,74.7,65.1,29.74,NE,41,3.0,9.0,72,0.00,,,0.00,Wunderground v.1.15,2013-05-28 20:23:00,
2013-05-28 15:24:00,74.7,64.7,29.74,NE,54,3.0,9.0,71,0.00,,,0.00,Wunderground v.1.15,2013-05-28 20:24:00,
2013-05-28 15:26:00,74.6,64.2,29.74,NE,53,3.0,9.0,70,0.00,,,0.00,Wunderground v.1.15,2013-05-28 20:26:00,
2013-05-28 15:28:00,74.6,64.6,29.74,ENE,61,4.0,9.0,71,0.00,,,0.00,Wunderground v.1.15,2013-05-28 20:28:00,
2013-05-28 15:31:00,74.7,65.1,29.74,NNE,28,3.0,9.0,72,0.00,,,0.00,Wunderground v.1.15,2013-05-28 20:31:00,
2013-05-28 15:33:00,74.7,64.3,29.74,North,10,3.0,9.0,70,0.00,,,0.00,Wunderground v.1.15,2013-05-28 20:33:00,
2013-05-28 15:34:00,74.8,65.2,29.74,North,10,3.0,9.0,72,0.00,,,0.00,Wunderground v.1.15,2013-05-28 20:34:00,
2013-05-28 15:35:00,74.8,64.8,29.74,North,10,3.0,9.0,71,0.00,,,0.00,Wunderground v.1.15,2013-05-28 20:35:00,
2013-05-28 15:39:00,74.9,65.3,29.74,North,10,4.0,9.0,72,0.00,,,0.00,Wunderground v.1.15,2013-05-28 20:39:00,
2013-05-28 15:41:00,75.0,65.0,29.74,North,10,4.0,9.0,71,0.00,,,0.00,Wunderground v.1.15,2013-05-28 20:41:00,
2013-05-28 15:42:00,75.0,64.5,29.74,NNE,29,4.0,9.0,70,0.00,,,0.00,Wunderground v.1.15,2013-05-28 20:42:00,
2013-05-28 15:44:00,75.0,64.5,29.74,NE,43,4.0,9.0,70,0.00,,,0.00,Wunderground v.1.15,2013-05-28 20:44:00,
2013-05-28 15:46:00,75.0,64.1,29.74,NNE,31,4.0,9.0,69,0.00,,,0.00,Wunderground v.1.15,2013-05-28 20:46:00,
2013-05-28 15:47:00,74.9,64.5,29.74,NE,39,4.0,9.0,70,0.00,,,0.00,Wunderground v.1.15,2013-05-28 20:47:00,
2013-05-28 15:49:00,74.9,64.0,29.74,NNE,30,5.0,9.0,69,0.00,,,0.00,Wunderground v.1.15,2013-05-28 20:49:00,
2013-05-28 15:50:00,74.9,64.5,29.74,NNE,30,4.0,4.0,70,0.00,,,0.00,Wunderground v.1.15,2013-05-28 20:50:00,
2013-05-28 15:51:00,74.8,64.4,29.74,NE,38,5.0,5.0,70,0.00,,,0.00,Wunderground v.1.15,2013-05-28 20:51:00,
2013-05-28 15:52:00,74.8,63.9,29.74,NE,34,5.0,9.0,69,0.00,,,0.00,Wunderground v.1.15,2013-05-28 20:52:00,
2013-05-28 15:55:00,74.6,64.2,29.74,NE,43,5.0,9.0,70,0.00,,,0.00,Wunderground v.1.15,2013-05-28 20:55:00,
2013-05-28 15:57:00,74.6,64.6,29.73,NNE,25,5.0,9.0,71,0.00,,,0.00,Wunderground v.1.15,2013-05-28 20:57:00,
2013-05-28 15:58:00,74.5,64.1,29.73,NNE,30,5.0,9.0,70,0.00,,,0.00,Wunderground v.1.15,2013-05-28 20:58:00,
2013-05-28 16:00:00,74.4,64.0,29.73,NNE,31,5.0,5.0,70,0.00,,,0.00,Wunderground v.1.15,2013-05-28 21:00:00,
2013-05-28 16:01:00,74.4,64.4,29.73,NNE,28,5.0,9.0,71,0.00,,,0.00,Wunderground v.1.15,2013-05-28 21:01:00,
2013-05-28 16:04:00,74.4,64.4,29.73,NNE,33,5.0,9.0,71,0.00,,,0.00,Wunderground v.1.15,2013-05-28 21:04:00,
2013-05-28 16:05:00,74.4,64.4,29.73,NE,55,5.0,9.0,71,0.00,,,0.00,Wunderground v.1.15,2013-05-28 21:05:00,
2013-05-28 16:09:00,74.5,64.5,29.73,East,82,5.0,10.0,71,0.00,,,0.00,Wunderground v.1.15,2013-05-28 21:09:00,
2013-05-28 16:10:00,74.6,64.2,29.73,ENE,57,5.0,9.0,70,0.00,,,0.00,Wunderground v.1.15,2013-05-28 21:10:00,
2013-05-28 16:13:00,74.6,65.0,29.73,NE,40,6.0,9.0,72,0.00,,,0.00,Wunderground v.1.15,2013-05-28 21:13:00,
2013-05-28 16:15:00,74.7,65.5,29.73,NE,55,6.0,9.0,73,0.00,,,0.00,Wunderground v.1.15,2013-05-28 21:15:00,
2013-05-28 16:16:00,74.7,65.5,29.73,ENE,76,6.0,9.0,73,0.00,,,0.00,Wunderground v.1.15,2013-05-28 21:16:00,
2013-05-28 16:18:00,74.7,65.1,29.73,ENE,75,6.0,9.0,72,0.00,,,0.00,Wunderground v.1.15,2013-05-28 21:18:00,
2013-05-28 16:19:00,74.7,65.5,29.73,NE,55,5.0,9.0,73,0.00,,,0.00,Wunderground v.1.15,2013-05-28 21:19:00,
2013-05-28 16:23:00,74.8,65.6,29.73,ENE,57,5.0,10.0,73,0.00,,,0.00,Wunderground v.1.15,2013-05-28 21:23:00,
2013-05-28 16:24:00,74.8,65.2,29.72,NE,53,5.0,10.0,72,0.00,,,0.00,Wunderground v.1.15,2013-05-28 21:24:00,
2013-05-28 16:26:00,74.8,65.6,29.72,NE,38,6.0,10.0,73,0.00,,,0.00,Wunderground v.1.15,2013-05-28 21:26:00,
2013-05-28 16:27:00,74.9,66.1,29.72,NE,34,6.0,10.0,74,0.00,,,0.00,Wunderground v.1.15,2013-05-28 21:27:00,
2013-05-28 16:29:00,75.0,65.8,29.72,ENE,65,7.0,10.0,73,0.00,,,0.00,Wunderground v.1.15,2013-05-28 21:29:00,
2013-05-28 16:32:00,75.1,66.2,29.71,NE,48,8.0,10.0,74,0.00,,,0.00,Wunderground v.1.15,2013-05-28 21:32:00,
2013-05-28 16:35:00,75.4,66.1,29.71,NE,55,7.0,10.0,73,0.00,,,0.00,Wunderground v.1.15,2013-05-28 21:35:00,
2013-05-28 16:36:00,75.5,66.6,29.71,ENE,68,7.0,10.0,74,0.00,,,0.00,Wunderground v.1.15,2013-05-28 21:36:00,
2013-05-28 16:37:00,75.6,65.9,29.71,NE,52,7.0,10.0,72,0.00,,,0.00,Wunderground v.1.15,2013-05-28 21:37:00,
2013-05-28 16:42:00,76.0,65.5,29.71,NE,55,7.0,9.0,70,0.00,,,0.00,Wunderground v.1.15,2013-05-28 21:42:00,
2013-05-28 16:43:00,76.0,65.5,29.71,ENE,63,7.0,9.0,70,0.00,,,0.00,Wunderground v.1.15,2013-05-28 21:43:00,
2013-05-28 16:45:00,76.1,66.8,29.71,East,79,7.0,9.0,73,0.00,,,0.00,Wunderground v.1.15,2013-05-28 21:45:00,
2013-05-28 16:48:00,76.4,67.5,29.70,East,84,6.0,9.0,74,0.00,,,0.00,Wunderground v.1.15,2013-05-28 21:48:00,
2013-05-28 16:49:00,76.4,66.7,29.70,East,80,6.0,9.0,72,0.00,,,0.00,Wunderground v.1.15,2013-05-28 21:49:00,
2013-05-28 16:52:00,76.6,65.7,29.70,ENE,61,5.0,9.0,69,0.00,,,0.00,Wunderground v.1.15,2013-05-28 21:52:00,
2013-05-28 16:53:00,76.6,65.7,29.70,NE,55,5.0,9.0,69,0.00,,,0.00,Wunderground v.1.15,2013-05-28 21:53:00,
2013-05-28 16:54:00,76.6,66.1,29.69,ENE,59,5.0,9.0,70,0.00,,,0.00,Wunderground v.1.15,2013-05-28 21:54:00,
2013-05-28 16:56:00,76.4,65.5,29.69,ENE,57,6.0,10.0,69,0.00,,,0.00,Wunderground v.1.15,2013-05-28 21:56:00,
2013-05-28 16:58:00,76.4,66.3,29.69,ENE,65,6.0,10.0,71,0.00,,,0.00,Wunderground v.1.15,2013-05-28 21:58:00,
2013-05-28 16:59:00,76.4,65.9,29.69,ENE,57,6.0,10.0,70,0.00,,,0.00,Wunderground v.1.15,2013-05-28 21:59:00,
2013-05-28 17:01:00,76.3,66.2,29.68,NE,51,7.0,9.0,71,0.00,,,0.00,Wunderground v.1.15,2013-05-28 22:01:00,
2013-05-28 17:02:00,76.3,66.2,29.68,ENE,58,7.0,9.0,71,0.00,,,0.00,Wunderground v.1.15,2013-05-28 22:02:00,
2013-05-28 17:04:00,76.3,65.8,29.67,ENE,61,7.0,9.0,70,0.00,,,0.00,Wunderground v.1.15,2013-05-28 22:04:00,
2013-05-28 17:05:00,76.3,65.8,29.67,NNE,33,7.0,9.0,70,0.00,,,0.00,Wunderground v.1.15,2013-05-28 22:05:00,
2013-05-28 17:10:00,76.2,64.0,29.67,NE,56,7.0,9.0,66,0.00,,,0.00,Wunderground v.1.15,2013-05-28 22:10:00,
2013-05-28 17:13:00,76.2,64.0,29.67,ENE,59,8.0,9.0,66,0.00,,,0.00,Wunderground v.1.15,2013-05-28 22:13:00,
2013-05-28 17:15:00,76.2,64.0,29.66,NE,50,8.0,9.0,66,0.00,,,0.00,Wunderground v.1.15,2013-05-28 22:15:00,
2013-05-28 17:17:00,76.1,63.0,29.66,NE,51,8.0,9.0,64,0.00,,,0.00,Wunderground v.1.15,2013-05-28 22:17:00,
2013-05-28 17:18:00,76.1,62.6,29.66,NE,47,8.0,9.0,63,0.00,,,0.00,Wunderground v.1.15,2013-05-28 22:18:00,
2013-05-28 17:20:00,76.1,62.6,29.66,NE,49,8.0,8.0,63,0.00,,,0.00,Wunderground v.1.15,2013-05-28 22:20:00,
2013-05-28 17:21:00,76.2,64.4,29.66,ENE,59,8.0,10.0,67,0.00,,,0.00,Wunderground v.1.15,2013-05-28 22:21:00,
2013-05-28 17:25:00,76.4,63.8,29.66,ENE,69,7.0,10.0,65,0.00,,,0.00,Wunderground v.1.15,2013-05-28 22:25:00,
2013-05-28 17:26:00,76.4,63.8,29.66,ENE,67,7.0,10.0,65,0.00,,,0.00,Wunderground v.1.15,2013-05-28 22:26:00,
2013-05-28 17:31:00,76.6,64.4,29.66,NE,56,6.0,9.0,66,0.00,,,0.00,Wunderground v.1.15,2013-05-28 22:31:00,
2013-05-28 17:32:00,76.6,64.4,29.66,ENE,59,6.0,9.0,66,0.00,,,0.00,Wunderground v.1.15,2013-05-28 22:32:00,
2013-05-28 17:34:00,76.8,65.4,29.66,East,84,6.0,9.0,68,0.00,,,0.00,Wunderground v.1.15,2013-05-28 22:34:00,
2013-05-28 17:36:00,76.9,65.1,29.66,ENE,74,6.0,9.0,67,0.00,,,0.00,Wunderground v.1.15,2013-05-28 22:36:00,
2013-05-28 17:37:00,76.9,64.2,29.66,East,87,5.0,9.0,65,0.00,,,0.00,Wunderground v.1.15,2013-05-28 22:37:00,
2013-05-28 17:39:00,76.9,62.9,29.66,East,86,5.0,9.0,62,0.00,,,0.00,Wunderground v.1.15,2013-05-28 22:39:00,
2013-05-28 17:42:00,76.9,62.9,29.66,ESE,102,6.0,10.0,62,0.00,,,0.00,Wunderground v.1.15,2013-05-28 22:42:00,
2013-05-28 17:44:00,76.9,62.4,29.67,East,88,6.0,10.0,61,0.00,,,0.00,Wunderground v.1.15,2013-05-28 22:44:00,
2013-05-28 17:46:00,76.9,62.9,29.67,ENE,59,6.0,10.0,62,0.00,,,0.00,Wunderground v.1.15,2013-05-28 22:46:00,
2013-05-28 17:48:00,76.8,62.8,29.67,East,83,6.0,10.0,62,0.00,,,0.00,Wunderground v.1.15,2013-05-28 22:48:00,
2013-05-28 17:49:00,76.8,63.2,29.67,East,95,6.0,10.0,63,0.00,,,0.00,Wunderground v.1.15,2013-05-28 22:49:00,
2013-05-28 17:50:00,76.8,62.3,29.67,ESE,107,6.0,9.0,61,0.00,,,0.00,Wunderground v.1.15,2013-05-28 22:50:00,
2013-05-28 17:51:00,76.8,62.8,29.67,East,85,7.0,9.0,62,0.00,,,0.00,Wunderground v.1.15,2013-05-28 22:51:00,
2013-05-28 17:55:00,76.8,62.8,29.67,East,91,7.0,9.0,62,0.00,,,0.00,Wunderground v.1.15,2013-05-28 22:55:00,
2013-05-28 17:56:00,76.8,62.8,29.67,East,94,7.0,9.0,62,0.00,,,0.00,Wunderground v.1.15,2013-05-28 22:56:00,
2013-05-28 17:59:00,76.7,63.6,29.67,ENE,69,8.0,10.0,64,0.00,,,0.00,Wunderground v.1.15,2013-05-28 22:59:00,
2013-05-28 18:01:00,76.7,63.6,29.67,ENE,70,8.0,9.0,64,0.00,,,0.00,Wunderground v.1.15,2013-05-28 23:01:00,
2013-05-28 18:02:00,76.7,64.0,29.67,East,86,8.0,9.0,65,0.00,,,0.00,Wunderground v.1.15,2013-05-28 23:02:00,
2013-05-28 18:05:00,76.7,63.6,29.67,ENE,65,8.0,10.0,64,0.00,,,0.00,Wunderground v.1.15,2013-05-28 23:05:00,
2013-05-28 18:06:00,76.7,63.6,29.67,East,95,8.0,10.0,64,0.00,,,0.00,Wunderground v.1.15,2013-05-28 23:06:00,
2013-05-28 18:08:00,76.7,64.5,29.67,East,100,8.0,10.0,66,0.00,,,0.00,Wunderground v.1.15,2013-05-28 23:08:00,
2013-05-28 18:09:00,76.7,64.0,29.67,East,79,7.0,10.0,65,0.00,,,0.00,Wunderground v.1.15,2013-05-28 23:09:00,
2013-05-28 18:11:00,76.7,62.7,29.67,East,92,8.0,11.0,62,0.00,,,0.00,Wunderground v.1.15,2013-05-28 23:11:00,
2013-05-28 18:14:00,76.6,64.0,29.67,ENE,65,8.0,11.0,65,0.00,,,0.00,Wunderground v.1.15,2013-05-28 23:14:00,
2013-05-28 18:17:00,76.6,64.4,29.66,East,89,8.0,14.0,66,0.00,,,0.00,Wunderground v.1.15,2013-05-28 23:17:00,
2013-05-28 18:18:00,76.5,63.9,29.66,ENE,64,9.0,14.0,65,0.00,,,0.00,Wunderground v.1.15,2013-05-28 23:18:00,
2013-05-28 18:19:00,76.5,64.3,29.66,NE,46,9.0,14.0,66,0.00,,,0.00,Wunderground v.1.15,2013-05-28 23:19:00,
2013-05-28 18:22:00,76.4,64.2,29.66,NE,49,9.0,13.0,66,0.00,,,0.00,Wunderground v.1.15,2013-05-28 23:22:00,
2013-05-28 18:23:00,76.4,63.3,29.66,ENE,59,10.0,13.0,64,0.00,,,0.00,Wunderground v.1.15,2013-05-28 23:23:00,
2013-05-28 18:24:00,76.4,62.9,29.66,ENE,61,10.0,13.0,63,0.00,,,0.00,Wunderground v.1.15,2013-05-28 23:24:00,
2013-05-28 18:26:00,76.3,62.8,29.66,NE,56,10.0,13.0,63,0.00,,,0.00,Wunderground v.1.15,2013-05-28 23:26:00,
2013-05-28 18:29:00,76.2,63.1,29.66,NE,49,9.0,13.0,64,0.00,,,0.00,Wunderground v.1.15,2013-05-28 23:29:00,
2013-05-28 18:30:00,76.2,63.1,29.66,ENE,57,9.0,10.0,64,0.00,,,0.00,Wunderground v.1.15,2013-05-28 23:30:00,
2013-05-28 18:31:00,76.2,63.1,29.66,ENE,58,9.0,10.0,64,0.00,,,0.00,Wunderground v.1.15,2013-05-28 23:31:00,
2013-05-28 18:32:00,76.1,63.0,29.66,NE,53,9.0,11.0,64,0.00,,,0.00,Wunderground v.1.15,2013-05-28 23:32:00,
2013-05-28 18:36:00,76.1,63.9,29.66,East,95,8.0,11.0,66,0.00,,,0.00,Wunderground v.1.15,2013-05-28 23:36:00,
2013-05-28 18:37:00,76.1,63.0,29.66,NE,56,8.0,11.0,64,0.00,,,0.00,Wunderground v.1.15,2013-05-28 23:37:00,
2013-05-28 18:39:00,76.0,62.9,29.66,ENE,57,9.0,11.0,64,0.00,,,0.00,Wunderground v.1.15,2013-05-28 23:39:00,
2013-05-28 18:43:00,76.0,63.8,29.66,ENE,57,9.0,13.0,66,0.00,,,0.00,Wunderground v.1.15,2013-05-28 23:43:00,
2013-05-28 18:44:00,75.9,63.7,29.66,ENE,71,9.0,13.0,66,0.00,,,0.00,Wunderground v.1.15,2013-05-28 23:44:00,
2013-05-28 18:46:00,75.9,63.7,29.66,East,93,9.0,13.0,66,0.00,,,0.00,Wunderground v.1.15,2013-05-28 23:46:00,
2013-05-28 18:50:00,75.8,63.2,29.65,ENE,69,9.0,11.0,65,0.00,,,0.00,Wunderground v.1.15,2013-05-28 23:50:00,
2013-05-28 18:51:00,75.8,63.2,29.65,ENE,59,9.0,11.0,65,0.00,,,0.00,Wunderground v.1.15,2013-05-28 23:51:00,
2013-05-28 18:52:00,75.7,63.1,29.65,ENE,67,9.0,11.0,65,0.00,,,0.00,Wunderground v.1.15,2013-05-28 23:52:00,
2013-05-28 18:56:00,75.8,64.1,29.65,East,93,8.0,11.0,67,0.00,,,0.00,Wunderground v.1.15,2013-05-28 23:56:00,
2013-05-28 18:57:00,75.8,64.5,29.65,ESE,109,8.0,11.0,68,0.00,,,0.00,Wunderground v.1.15,2013-05-28 23:57:00,
2013-05-28 18:59:00,75.7,64.4,29.65,East,92,7.0,11.0,68,0.00,,,0.00,Wunderground v.1.15,2013-05-28 23:59:00,
2013-05-28 19:02:00,75.7,64.8,29.65,East,91,7.0,13.0,69,0.00,,,0.00,Wunderground v.1.15,2013-05-29 00:02:00,
2013-05-28 19:03:00,75.6,64.7,29.66,East,79,7.0,13.0,69,0.00,,,0.00,Wunderground v.1.15,2013-05-29 00:03:00,
2013-05-28 19:07:00,75.5,65.0,29.66,ENE,67,5.0,13.0,70,0.00,,,0.00,weatherlink.com 1.10,2013-05-29 00:07:00,
2013-05-28 19:09:00,75.5,65.0,29.66,East,92,7.0,13.0,70,0.00,,,0.00,Wunderground v.1.15,2013-05-29 00:09:00,
2013-05-28 19:13:00,75.4,64.9,29.66,East,82,7.0,13.0,70,0.00,,,0.00,Wunderground v.1.15,2013-05-29 00:13:00,
2013-05-28 19:14:00,75.4,64.9,29.66,East,96,7.0,13.0,70,0.00,,,0.00,Wunderground v.1.15,2013-05-29 00:14:00,
2013-05-28 19:15:00,75.4,64.9,29.66,East,90,7.0,13.0,70,0.00,,,0.00,Wunderground v.1.15,2013-05-29 00:15:00,
2013-05-28 19:16:00,75.4,65.3,29.66,East,91,6.0,13.0,71,0.00,,,0.00,Wunderground v.1.15,2013-05-29 00:16:00,
2013-05-28 19:21:00,75.2,65.0,29.67,ESE,109,7.0,13.0,70,0.00,,,0.00,weatherlink.com 1.10,2013-05-29 00:21:00,
2013-05-28 19:22:00,75.2,65.1,29.67,East,93,7.0,13.0,71,0.00,,,0.00,Wunderground v.1.15,2013-05-29 00:22:00,
2013-05-28 19:23:00,75.1,65.1,29.67,ENE,76,7.0,13.0,71,0.00,,,0.00,Wunderground v.1.15,2013-05-29 00:23:00,
2013-05-28 19:27:00,75.2,65.1,29.66,ENE,74,7.0,13.0,71,0.00,,,0.00,Wunderground v.1.15,2013-05-29 00:27:00,
2013-05-28 19:28:00,75.2,65.6,29.66,East,82,7.0,13.0,72,0.00,,,0.00,Wunderground v.1.15,2013-05-29 00:28:00,
2013-05-28 19:29:00,75.2,65.1,29.66,East,88,7.0,13.0,71,0.00,,,0.00,Wunderground v.1.15,2013-05-29 00:29:00,
2013-05-28 19:31:00,75.2,65.9,29.66,ENE,67,6.0,13.0,73,0.00,,,0.00,Wunderground v.1.15,2013-05-29 00:31:00,
2013-05-28 19:34:00,75.1,65.1,29.65,ENE,76,5.0,13.0,71,0.00,,,0.00,Wunderground v.1.15,2013-05-29 00:34:00,
2013-05-28 19:36:00,75.1,65.9,29.65,ESE,103,5.0,13.0,73,0.00,,,0.00,Wunderground v.1.15,2013-05-29 00:36:00,
2013-05-28 19:38:00,75.1,65.5,29.66,East,86,5.0,13.0,72,0.00,,,0.00,Wunderground v.1.15,2013-05-29 00:38:00,
2013-05-28 19:40:00,75.1,65.1,29.66,East,81,5.0,13.0,71,0.00,,,0.00,Wunderground v.1.15,2013-05-29 00:40:00,
2013-05-28 19:41:00,75.0,65.0,29.65,ENE,65,6.0,13.0,71,0.00,,,0.00,Wunderground v.1.15,2013-05-29 00:41:00,
2013-05-28 19:44:00,75.0,65.4,29.65,ENE,75,6.0,13.0,72,0.00,,,0.00,Wunderground v.1.15,2013-05-29 00:44:00,
2013-05-28 19:48:00,74.9,64.9,29.65,East,99,6.0,13.0,71,0.00,,,0.00,Wunderground v.1.15,2013-05-29 00:48:00,
2013-05-28 19:51:00,74.8,65.2,29.65,East,83,6.0,13.0,72,0.00,,,0.00,Wunderground v.1.15,2013-05-29 00:51:00,
2013-05-28 19:53:00,74.8,65.2,29.65,ENE,78,6.0,13.0,72,0.00,,,0.00,Wunderground v.1.15,2013-05-29 00:53:00,
2013-05-28 19:54:00,74.8,65.2,29.65,East,91,6.0,13.0,72,0.00,,,0.00,Wunderground v.1.15,2013-05-29 00:54:00,
2013-05-28 19:57:00,74.7,65.1,29.66,East,90,6.0,13.0,72,0.00,,,0.00,Wunderground v.1.15,2013-05-29 00:57:00,
2013-05-28 19:58:00,74.7,65.1,29.66,East,86,6.0,13.0,72,0.00,,,0.00,Wunderground v.1.15,2013-05-29 00:58:00,
2013-05-28 20:02:00,74.6,65.0,29.66,East,79,6.0,13.0,72,0.00,,,0.00,Wunderground v.1.15,2013-05-29 01:02:00,
2013-05-28 20:03:00,74.6,65.0,29.66,East,86,6.0,13.0,72,0.00,,,0.00,Wunderground v.1.15,2013-05-29 01:03:00,
2013-05-28 20:04:00,74.6,65.0,29.66,East,98,6.0,13.0,72,0.00,,,0.00,Wunderground v.1.15,2013-05-29 01:04:00,
2013-05-28 20:09:00,74.4,64.8,29.66,East,94,6.0,13.0,72,0.00,,,0.00,Wunderground v.1.15,2013-05-29 01:09:00,
2013-05-28 20:10:00,74.4,64.8,29.66,East,94,6.0,13.0,72,0.00,,,0.00,Wunderground v.1.15,2013-05-29 01:10:00,
2013-05-28 20:11:00,74.4,64.8,29.67,East,95,6.0,13.0,72,0.00,,,0.00,Wunderground v.1.15,2013-05-29 01:11:00,
2013-05-28 20:13:00,74.4,65.2,29.67,East,83,6.0,13.0,73,0.00,,,0.00,Wunderground v.1.15,2013-05-29 01:13:00,
2013-05-28 20:16:00,74.2,65.0,29.67,East,101,6.0,13.0,73,0.00,,,0.00,Wunderground v.1.15,2013-05-29 01:16:00,
2013-05-28 20:18:00,74.2,65.0,29.67,East,94,6.0,13.0,73,0.00,,,0.00,Wunderground v.1.15,2013-05-29 01:18:00,
2013-05-28 20:19:00,74.2,65.0,29.67,East,92,6.0,13.0,73,0.00,,,0.00,Wunderground v.1.15,2013-05-29 01:19:00,
2013-05-28 20:20:00,74.2,65.0,29.67,East,92,6.0,6.0,73,0.00,,,0.00,Wunderground v.1.15,2013-05-29 01:20:00,
2013-05-28 20:23:00,74.1,64.9,29.67,East,90,6.0,13.0,73,0.00,,,0.00,Wunderground v.1.15,2013-05-29 01:23:00,
2013-05-28 20:25:00,74.0,64.8,29.67,East,91,6.0,13.0,73,0.00,,,0.00,Wunderground v.1.15,2013-05-29 01:25:00,
2013-05-28 20:26:00,74.0,64.8,29.67,East,91,6.0,13.0,73,0.00,,,0.00,Wunderground v.1.15,2013-05-29 01:26:00,
2013-05-28 20:27:00,74.0,65.2,29.67,East,91,6.0,13.0,74,0.00,,,0.00,Wunderground v.1.15,2013-05-29 01:27:00,
2013-05-28 20:30:00,73.8,65.0,29.67,East,92,4.0,4.0,74,0.00,,,0.00,Wunderground v.1.15,2013-05-29 01:30:00,
2013-05-28 20:31:00,73.8,65.4,29.68,East,91,4.0,13.0,75,0.00,,,0.00,Wunderground v.1.15,2013-05-29 01:31:00,
2013-05-28 20:33:00,73.6,65.2,29.68,East,91,3.0,13.0,75,0.00,,,0.00,Wunderground v.1.15,2013-05-29 01:33:00,
2013-05-28 20:35:00,73.4,65.0,29.68,East,92,3.0,13.0,75,0.00,,,0.00,Wunderground v.1.15,2013-05-29 01:35:00,
2013-05-28 20:37:00,73.3,64.9,29.68,East,92,3.0,13.0,75,0.00,,,0.00,Wunderground v.1.15,2013-05-29 01:37:00,
2013-05-28 20:39:00,73.1,64.7,29.68,East,92,3.0,13.0,75,0.00,,,0.00,Wunderground v.1.15,2013-05-29 01:39:00,
2013-05-28 20:40:00,73.1,65.1,29.68,East,91,3.0,3.0,76,0.00,,,0.00,Wunderground v.1.15,2013-05-29 01:40:00,
2013-05-28 20:41:00,73.1,65.1,29.68,East,92,3.0,13.0,76,0.00,,,0.00,Wunderground v.1.15,2013-05-29 01:41:00,
2013-05-28 20:42:00,73.0,65.0,29.67,East,92,3.0,13.0,76,0.00,,,0.00,Wunderground v.1.15,2013-05-29 01:42:00,
2013-05-28 20:45:00,72.9,65.3,29.68,East,91,3.0,13.0,77,0.00,,,0.00,Wunderground v.1.15,2013-05-29 01:45:00,
2013-05-28 20:47:00,72.8,65.2,29.68,East,92,3.0,13.0,77,0.00,,,0.00,Wunderground v.1.15,2013-05-29 01:47:00,
2013-05-28 20:48:00,72.7,65.1,29.68,East,92,3.0,13.0,77,0.00,,,0.00,Wunderground v.1.15,2013-05-29 01:48:00,
2013-05-28 20:49:00,72.6,65.0,29.68,ESE,113,3.0,13.0,77,0.00,,,0.00,Wunderground v.1.15,2013-05-29 01:49:00,
2013-05-28 20:50:00,72.6,65.0,29.68,ESE,104,3.0,13.0,77,0.00,,,0.00,Wunderground v.1.15,2013-05-29 01:50:00,
2013-05-28 20:51:00,72.5,64.9,29.68,ESE,105,4.0,13.0,77,0.00,,,0.00,Wunderground v.1.15,2013-05-29 01:51:00,
2013-05-28 20:53:00,72.5,64.9,29.69,ESE,107,4.0,13.0,77,0.00,,,0.00,Wunderground v.1.15,2013-05-29 01:53:00,
2013-05-28 20:55:00,72.4,65.2,29.69,ESE,113,4.0,13.0,78,0.00,,,0.00,Wunderground v.1.15,2013-05-29 01:55:00,
2013-05-28 20:56:00,72.4,65.2,29.68,ESE,109,4.0,13.0,78,0.00,,,0.00,Wunderground v.1.15,2013-05-29 01:56:00,
2013-05-28 20:57:00,72.4,65.2,29.68,ESE,115,4.0,13.0,78,0.00,,,0.00,Wunderground v.1.15,2013-05-29 01:57:00,
2013-05-28 20:59:00,72.4,64.8,29.69,ESE,106,4.0,13.0,77,0.00,,,0.00,Wunderground v.1.15,2013-05-29 01:59:00,
2013-05-28 21:01:00,72.5,64.9,29.69,ESE,116,5.0,13.0,77,0.00,,,0.00,Wunderground v.1.15,2013-05-29 02:01:00,
2013-05-28 21:05:00,72.4,65.2,29.69,SE,131,4.0,13.0,78,0.00,,,0.00,Wunderground v.1.15,2013-05-29 02:05:00,
2013-05-28 21:07:00,72.5,65.0,29.69,ESE,123,4.0,8.0,78,0.00,,,0.00,weatherlink.com 1.10,2013-05-29 02:07:00,
2013-05-28 21:10:00,72.5,64.9,29.69,ESE,113,4.0,13.0,77,0.00,,,0.00,Wunderground v.1.15,2013-05-29 02:10:00,
2013-05-28 21:11:00,72.5,64.9,29.69,ESE,113,4.0,13.0,77,0.00,,,0.00,Wunderground v.1.15,2013-05-29 02:11:00,
2013-05-28 21:12:00,72.6,65.0,29.69,ESE,113,4.0,13.0,77,0.00,,,0.00,Wunderground v.1.15,2013-05-29 02:12:00,
2013-05-28 21:13:00,72.6,65.0,29.69,ESE,119,4.0,13.0,77,0.00,,,0.00,Wunderground v.1.15,2013-05-29 02:13:00,
2013-05-28 21:14:00,72.5,64.9,29.69,SE,129,4.0,13.0,77,0.00,,,0.00,Wunderground v.1.15,2013-05-29 02:14:00,
2013-05-28 21:16:00,72.5,64.9,29.70,SE,128,4.0,13.0,77,0.00,,,0.00,Wunderground v.1.15,2013-05-29 02:16:00,
2013-05-28 21:17:00,72.5,64.9,29.70,ESE,119,4.0,13.0,77,0.00,,,0.00,Wunderground v.1.15,2013-05-29 02:17:00,
2013-05-28 21:18:00,72.4,64.8,29.70,SE,140,4.0,13.0,77,0.00,,,0.00,Wunderground v.1.15,2013-05-29 02:18:00,
2013-05-28 21:19:00,72.5,64.9,29.70,SE,132,4.0,13.0,77,0.00,,,0.00,Wunderground v.1.15,2013-05-29 02:19:00,
2013-05-28 21:21:00,72.6,64.6,29.70,SE,135,4.0,13.0,76,0.00,,,0.00,Wunderground v.1.15,2013-05-29 02:21:00,
2013-05-28 21:23:00,72.8,64.4,29.70,SE,128,5.0,13.0,75,0.00,,,0.00,Wunderground v.1.15,2013-05-29 02:23:00,
2013-05-28 21:25:00,73.1,64.3,29.70,SE,130,5.0,13.0,74,0.00,,,0.00,Wunderground v.1.15,2013-05-29 02:25:00,
2013-05-28 21:28:00,73.4,64.2,29.70,SSE,149,6.0,13.0,73,0.00,,,0.00,Wunderground v.1.15,2013-05-29 02:28:00,
2013-05-28 21:30:00,73.6,64.4,29.71,SE,134,6.0,13.0,73,0.00,,,0.00,Wunderground v.1.15,2013-05-29 02:30:00,
2013-05-28 21:33:00,73.7,64.1,29.71,SE,146,6.0,13.0,72,0.00,,,0.00,Wunderground v.1.15,2013-05-29 02:33:00,
2013-05-28 21:36:00,73.8,64.2,29.70,SSE,157,5.0,13.0,72,0.00,,,0.00,Wunderground v.1.15,2013-05-29 02:36:00,
2013-05-28 21:37:00,73.8,64.6,29.70,SE,140,5.0,13.0,73,0.00,,,0.00,Wunderground v.1.15,2013-05-29 02:37:00,
2013-05-28 21:38:00,73.8,64.2,29.71,SE,142,5.0,13.0,72,0.00,,,0.00,Wunderground v.1.15,2013-05-29 02:38:00,
2013-05-28 21:43:00,73.8,64.6,29.71,SE,136,4.0,13.0,73,0.00,,,0.00,Wunderground v.1.15,2013-05-29 02:43:00,
2013-05-28 21:44:00,73.8,64.6,29.71,SSE,147,4.0,13.0,73,0.00,,,0.00,Wunderground v.1.15,2013-05-29 02:44:00,
2013-05-28 21:46:00,73.7,64.5,29.71,SE,142,4.0,13.0,73,0.00,,,0.00,Wunderground v.1.15,2013-05-29 02:46:00,
2013-05-28 21:48:00,73.7,64.5,29.71,SSE,161,5.0,13.0,73,0.00,,,0.00,Wunderground v.1.15,2013-05-29 02:48:00,
2013-05-28 21:51:00,73.6,64.4,29.71,SE,129,5.0,7.0,73,0.00,,,0.00,Wunderground v.1.15,2013-05-29 02:51:00,
2013-05-28 21:55:00,73.5,64.7,29.71,South,173,5.0,13.0,74,0.00,,,0.00,Wunderground v.1.15,2013-05-29 02:55:00,
2013-05-28 21:56:00,73.5,64.7,29.71,South,172,6.0,13.0,74,0.00,,,0.00,Wunderground v.1.15,2013-05-29 02:56:00,
2013-05-28 21:57:00,73.5,64.7,29.71,South,174,6.0,13.0,74,0.00,,,0.00,Wunderground v.1.15,2013-05-29 02:57:00,
2013-05-28 21:58:00,73.5,64.7,29.71,SSE,166,6.0,13.0,74,0.00,,,0.00,Wunderground v.1.15,2013-05-29 02:58:00,
2013-05-28 21:59:00,73.6,64.8,29.71,South,186,6.0,13.0,74,0.00,,,0.00,Wunderground v.1.15,2013-05-29 02:59:00,
2013-05-28 22:01:00,73.5,65.1,29.70,SSE,156,6.0,13.0,75,0.00,,,0.00,Wunderground v.1.15,2013-05-29 03:01:00,
2013-05-28 22:04:00,73.4,65.0,29.70,SSE,168,6.0,13.0,75,0.00,,,0.00,Wunderground v.1.15,2013-05-29 03:04:00,
2013-05-28 22:08:00,73.3,64.9,29.69,SSE,160,4.0,13.0,75,0.00,,,0.00,Wunderground v.1.15,2013-05-29 03:08:00,
2013-05-28 22:09:00,73.2,64.8,29.69,SSE,159,4.0,13.0,75,0.00,,,0.00,Wunderground v.1.15,2013-05-29 03:09:00,
2013-05-28 22:11:00,73.2,64.8,29.68,SSE,148,3.0,13.0,75,0.00,,,0.00,Wunderground v.1.15,2013-05-29 03:11:00,
2013-05-28 22:15:00,72.8,64.8,29.69,SSE,148,3.0,13.0,76,0.00,,,0.00,Wunderground v.1.15,2013-05-29 03:15:00,
2013-05-28 22:16:00,72.7,64.7,29.69,SSE,147,3.0,13.0,76,0.00,,,0.00,Wunderground v.1.15,2013-05-29 03:16:00,
2013-05-28 22:18:00,72.6,65.0,29.69,SE,144,3.0,13.0,77,0.00,,,0.00,Wunderground v.1.15,2013-05-29 03:18:00,
2013-05-28 22:20:00,72.4,64.8,29.68,SE,144,3.0,13.0,77,0.00,,,0.00,Wunderground v.1.15,2013-05-29 03:20:00,
2013-05-28 22:26:00,72.0,64.8,29.68,SE,142,3.0,13.0,78,0.00,,,0.00,Wunderground v.1.15,2013-05-29 03:26:00,
2013-05-28 22:28:00,71.8,64.6,29.68,SE,136,3.0,13.0,78,0.00,,,0.00,Wunderground v.1.15,2013-05-29 03:28:00,
2013-05-28 22:29:00,71.7,64.5,29.68,SE,125,3.0,13.0,78,0.00,,,0.00,Wunderground v.1.15,2013-05-29 03:29:00,
2013-05-28 22:30:00,71.7,64.5,29.68,SE,138,3.0,3.0,78,0.00,,,0.00,Wunderground v.1.15,2013-05-29 03:30:00,
2013-05-28 22:33:00,71.5,64.6,29.67,SE,139,3.0,13.0,79,0.00,,,0.00,Wunderground v.1.15,2013-05-29 03:33:00,
2013-05-28 22:34:00,71.5,64.6,29.68,SE,140,3.0,13.0,79,0.00,,,0.00,Wunderground v.1.15,2013-05-29 03:34:00,
2013-05-28 22:36:00,71.3,64.4,29.68,SSE,167,3.0,13.0,79,0.00,,,0.00,Wunderground v.1.15,2013-05-29 03:36:00,
2013-05-28 22:40:00,71.3,64.4,29.68,SSE,167,2.0,13.0,79,0.00,,,0.00,Wunderground v.1.15,2013-05-29 03:40:00,
2013-05-28 22:41:00,71.2,64.4,29.68,SSE,167,2.0,13.0,79,0.00,,,0.00,Wunderground v.1.15,2013-05-29 03:41:00,
2013-05-28 22:43:00,71.2,64.4,29.68,SSE,167,2.0,13.0,79,0.00,,,0.00,Wunderground v.1.15,2013-05-29 03:43:00,
2013-05-28 22:45:00,71.1,64.6,29.68,SSE,167,1.0,13.0,80,0.00,,,0.00,Wunderground v.1.15,2013-05-29 03:45:00,
2013-05-28 22:46:00,71.0,64.5,29.68,SSE,167,1.0,13.0,80,0.00,,,0.00,Wunderground v.1.15,2013-05-29 03:46:00,
2013-05-28 22:48:00,71.0,64.5,29.68,SSE,167,1.0,13.0,80,0.00,,,0.00,Wunderground v.1.15,2013-05-29 03:48:00,
2013-05-28 22:49:00,70.9,64.1,29.68,SSE,167,1.0,13.0,79,0.00,,,0.00,Wunderground v.1.15,2013-05-29 03:49:00,
2013-05-28 22:51:00,70.8,64.3,29.68,SSE,167,0.0,13.0,80,0.00,,,0.00,Wunderground v.1.15,2013-05-29 03:51:00,
2013-05-28 22:52:00,70.8,64.3,29.68,SSE,167,0.0,13.0,80,0.00,,,0.00,Wunderground v.1.15,2013-05-29 03:52:00,
2013-05-28 22:57:00,70.6,64.5,29.68,SSE,167,1.0,13.0,81,0.00,,,0.00,Wunderground v.1.15,2013-05-29 03:57:00,
2013-05-28 22:58:00,70.5,64.4,29.68,SSE,167,1.0,13.0,81,0.00,,,0.00,Wunderground v.1.15,2013-05-29 03:58:00,
2013-05-28 23:00:00,70.4,64.3,29.68,SSE,167,1.0,1.0,81,0.00,,,0.00,Wunderground v.1.15,2013-05-29 04:00:00,
2013-05-28 23:01:00,70.3,64.2,29.68,SSE,167,1.0,13.0,81,0.00,,,0.00,Wunderground v.1.15,2013-05-29 04:01:00,
2013-05-28 23:02:00,70.2,64.1,29.68,SSE,167,1.0,13.0,81,0.00,,,0.00,Wunderground v.1.15,2013-05-29 04:02:00,
2013-05-28 23:03:00,70.1,64.0,29.68,SSE,167,1.0,13.0,81,0.00,,,0.00,Wunderground v.1.15,2013-05-29 04:03:00,
2013-05-28 23:05:00,70.0,63.9,29.69,SSE,167,1.0,13.0,81,0.00,,,0.00,Wunderground v.1.15,2013-05-29 04:05:00,
2013-05-28 23:06:00,69.9,64.2,29.69,SSE,167,1.0,13.0,82,0.00,,,0.00,Wunderground v.1.15,2013-05-29 04:06:00,
2013-05-28 23:07:00,69.9,64.0,29.69,SSE,167,3.0,4.0,82,0.00,,,0.00,weatherlink.com 1.10,2013-05-29 04:07:00,
2013-05-28 23:09:00,69.8,64.1,29.69,South,169,2.0,13.0,82,0.00,,,0.00,Wunderground v.1.15,2013-05-29 04:09:00,
2013-05-28 23:10:00,69.7,64.0,29.69,South,171,2.0,13.0,82,0.00,,,0.00,Wunderground v.1.15,2013-05-29 04:10:00,
2013-05-28 23:12:00,69.5,63.8,29.69,SSE,155,3.0,13.0,82,0.00,,,0.00,Wunderground v.1.15,2013-05-29 04:12:00,
2013-05-28 23:13:00,69.5,63.8,29.69,SSE,155,3.0,13.0,82,0.00,,,0.00,Wunderground v.1.15,2013-05-29 04:13:00,
2013-05-28 23:17:00,69.4,63.7,29.69,SSE,155,2.0,13.0,82,0.00,,,0.00,Wunderground v.1.15,2013-05-29 04:17:00,
2013-05-28 23:18:00,69.3,63.9,29.69,SSE,155,2.0,13.0,83,0.00,,,0.00,Wunderground v.1.15,2013-05-29 04:18:00,
2013-05-28 23:19:00,69.3,63.9,29.69,SSE,155,2.0,13.0,83,0.00,,,0.00,Wunderground v.1.15,2013-05-29 04:19:00,
2013-05-28 23:20:00,69.3,63.9,29.69,SSE,155,2.0,2.0,83,0.00,,,0.00,Wunderground v.1.15,2013-05-29 04:20:00,
2013-05-28 23:21:00,69.3,63.9,29.69,SSE,155,2.0,3.0,83,0.00,,,0.00,Wunderground v.1.15,2013-05-29 04:21:00,
2013-05-28 23:22:00,69.2,64.0,29.69,SSE,155,3.0,4.0,83,0.00,,,0.00,weatherlink.com 1.10,2013-05-29 04:22:00,
2013-05-28 23:25:00,69.2,63.8,29.69,SSE,155,2.0,3.0,83,0.00,,,0.00,Wunderground v.1.15,2013-05-29 04:25:00,
2013-05-28 23:27:00,69.0,63.6,29.69,SSE,161,2.0,5.0,83,0.00,,,0.00,Wunderground v.1.15,2013-05-29 04:27:00,
2013-05-28 23:28:00,69.0,63.6,29.70,SSE,163,2.0,5.0,83,0.00,,,0.00,Wunderground v.1.15,2013-05-29 04:28:00,
2013-05-28 23:29:00,69.0,63.6,29.70,SE,146,2.0,5.0,83,0.00,,,0.00,Wunderground v.1.15,2013-05-29 04:29:00,
2013-05-28 23:32:00,68.9,63.5,29.69,SE,130,3.0,4.0,83,0.00,,,0.00,Wunderground v.1.15,2013-05-29 04:32:00,
2013-05-28 23:34:00,68.8,63.4,29.68,ESE,119,3.0,4.0,83,0.00,,,0.00,Wunderground v.1.15,2013-05-29 04:34:00,
2013-05-28 23:35:00,68.8,63.4,29.68,East,90,3.0,4.0,83,0.00,,,0.00,Wunderground v.1.15,2013-05-29 04:35:00,
2013-05-28 23:37:00,68.7,63.3,29.68,East,90,3.0,5.0,83,0.00,,,0.00,Wunderground v.1.15,2013-05-29 04:37:00,
2013-05-28 23:40:00,68.5,63.1,29.68,East,90,2.0,2.0,83,0.00,,,0.00,Wunderground v.1.15,2013-05-29 04:40:00,
2013-05-28 23:41:00,68.4,63.0,29.68,East,90,2.0,2.0,83,0.00,,,0.00,Wunderground v.1.15,2013-05-29 04:41:00,
2013-05-28 23:43:00,68.2,62.8,29.68,East,90,2.0,2.0,83,0.00,,,0.00,Wunderground v.1.15,2013-05-29 04:43:00,
2013-05-28 23:44:00,68.2,62.8,29.68,East,90,2.0,2.0,83,0.00,,,0.00,Wunderground v.1.15,2013-05-29 04:44:00,
2013-05-28 23:46:00,68.0,62.6,29.68,East,90,2.0,2.0,83,0.00,,,0.00,Wunderground v.1.15,2013-05-29 04:46:00,
2013-05-28 23:49:00,67.8,62.4,29.68,East,98,2.0,5.0,83,0.00,,,0.00,Wunderground v.1.15,2013-05-29 04:49:00,
2013-05-28 23:50:00,67.7,62.3,29.69,East,100,2.0,5.0,83,0.00,,,0.00,Wunderground v.1.15,2013-05-29 04:50:00,
2013-05-28 23:51:00,67.6,62.6,29.69,ESE,113,2.0,5.0,84,0.00,,,0.00,Wunderground v.1.15,2013-05-29 04:51:00,
2013-05-28 23:52:00,67.4,62.4,29.69,ESE,113,3.0,5.0,84,0.00,,,0.00,Wunderground v.1.15,2013-05-29 04:52:00,
2013-05-28 23:54:00,67.4,63.0,29.69,ESE,116,8.0,9.0,85,0.00,,,0.00,weatherlink.com 1.10,2013-05-29 04:54:00,
2013-05-28 23:57:00,67.5,62.8,29.68,East,92,5.0,7.0,85,0.00,,,0.00,Wunderground v.1.15,2013-05-29 04:57:00,
2013-05-28 23:58:00,67.5,62.8,29.68,East,86,5.0,7.0,85,0.00,,,0.00,Wunderground v.1.15,2013-05-29 04:58:00,